Time,TemperatureF,DewpointF,PressureIn,WindDirection,WindDirectionDegrees,WindSpeedMPH,WindSpeedGustMPH,Humidity,HourlyPrecipIn,Conditions,Clouds,dailyrainin,SoftwareType,DateUTC
2013-05-21 00:02:00,76.9,70.3,29.87,SW,231,0.0,1.0,80,0.00,,---,0.00,VWS V14.01,2013-05-21 05:02:00,
2013-05-21 00:03:00,76.9,70.3,29.87,SW,231,0.0,1.0,80,0.00,,---,0.00,VWS V14.01,2013-05-21 05:03:00,
2013-05-21 00:07:00,76.9,70.3,29.86,West,262,0.0,3.0,80,0.00,,---,0.00,VWS V14.01,2013-05-21 05:07:00,
2013-05-21 00:08:00,76.9,70.3,29.86,West,262,0.0,3.0,80,0.00,,---,0.00,VWS V14.01,2013-05-21 05:08:00,
2013-05-21 00:09:00,76.9,70.3,29.86,West,270,1.0,3.0,80,0.00,,---,0.00,VWS V14.01,2013-05-21 05:09:00,
2013-05-21 00:12:00,76.9,70.3,29.86,SW,214,0.0,3.0,80,0.00,,---,0.00,VWS V14.01,2013-05-21 05:12:00,
2013-05-21 00:13:00,76.8,70.2,29.86,West,278,1.0,3.0,80,0.00,,---,0.00,VWS V14.01,2013-05-21 05:13:00,
2013-05-21 00:14:00,76.8,70.2,29.86,West,278,0.0,3.0,80,0.00,,---,0.00,VWS V14.01,2013-05-21 05:14:00,
2013-05-21 00:17:00,76.9,70.3,29.86,WSW,237,0.0,3.0,80,0.00,,---,0.00,VWS V14.01,2013-05-21 05:17:00,
2013-05-21 00:18:00,76.9,70.3,29.86,WSW,257,0.0,3.0,80,0.00,,---,0.00,VWS V14.01,2013-05-21 05:18:00,
2013-05-21 00:19:00,76.9,70.3,29.86,WSW,257,0.0,3.0,80,0.00,,---,0.00,VWS V14.01,2013-05-21 05:19:00,
2013-05-21 00:22:00,76.9,70.3,29.86,SW,219,1.0,4.0,80,0.00,,---,0.00,VWS V14.01,2013-05-21 05:22:00,
2013-05-21 00:23:00,77.0,70.4,29.86,SSW,213,3.0,4.0,80,0.00,,---,0.00,VWS V14.01,2013-05-21 05:23:00,
2013-05-21 00:24:00,77.0,70.4,29.86,SW,233,2.0,5.0,80,0.00,,---,0.00,VWS V14.01,2013-05-21 05:24:00,
2013-05-21 00:27:00,77.0,70.4,29.86,SW,228,0.0,6.0,80,0.00,,---,0.00,VWS V14.01,2013-05-21 05:27:00,
2013-05-21 00:28:00,77.0,70.4,29.86,SW,229,2.0,6.0,80,0.00,,---,0.00,VWS V14.01,2013-05-21 05:28:00,
2013-05-21 00:29:00,77.0,70.4,29.86,SW,230,1.0,6.0,80,0.00,,---,0.00,VWS V14.01,2013-05-21 05:29:00,
2013-05-21 00:30:00,77.0,70.4,29.86,SW,230,0.0,6.0,80,0.00,,---,0.00,VWS V14.01,2013-05-21 05:30:00,
2013-05-21 00:32:00,77.0,70.4,29.86,SW,231,0.0,4.0,80,0.00,,---,0.00,VWS V14.01,2013-05-21 05:32:00,
2013-05-21 00:33:00,76.9,70.3,29.86,SW,228,2.0,5.0,80,0.00,,---,0.00,VWS V14.01,2013-05-21 05:33:00,
2013-05-21 00:34:00,76.9,70.3,29.86,SW,230,2.0,5.0,80,0.00,,---,0.00,VWS V14.01,2013-05-21 05:34:00,
2013-05-21 00:35:00,77.0,70.4,29.86,SW,216,1.0,5.0,80,0.00,,---,0.00,VWS V14.01,2013-05-21 05:35:00,
2013-05-21 00:38:00,76.9,70.3,29.86,SW,233,1.0,5.0,80,0.00,,---,0.00,VWS V14.01,2013-05-21 05:38:00,
2013-05-21 00:39:00,76.9,70.3,29.86,SW,233,1.0,5.0,80,0.00,,---,0.00,VWS V14.01,2013-05-21 05:39:00,
2013-05-21 00:40:00,76.8,70.2,29.86,SW,233,0.0,5.0,80,0.00,,---,0.00,VWS V14.01,2013-05-21 05:40:00,
2013-05-21 00:43:00,76.8,70.2,29.86,SW,225,2.0,6.0,80,0.00,,---,0.00,VWS V14.01,2013-05-21 05:43:00,
2013-05-21 00:44:00,76.8,70.2,29.86,SSW,205,5.0,6.0,80,0.00,,---,0.00,VWS V14.01,2013-05-21 05:44:00,
2013-05-21 00:45:00,76.8,70.2,29.86,SW,235,1.0,6.0,80,0.00,,---,0.00,VWS V14.01,2013-05-21 05:45:00,
2013-05-21 00:48:00,76.9,70.3,29.86,SW,223,0.0,6.0,80,0.00,,---,0.00,VWS V14.01,2013-05-21 05:48:00,
2013-05-21 00:49:00,76.9,70.3,29.86,WSW,247,0.0,6.0,80,0.00,,---,0.00,VWS V14.01,2013-05-21 05:49:00,
2013-05-21 00:50:00,76.9,70.3,29.86,WSW,247,1.0,6.0,80,0.00,,---,0.00,VWS V14.01,2013-05-21 05:50:00,
2013-05-21 00:53:00,76.8,70.2,29.86,SSW,211,3.0,6.0,80,0.00,,---,0.00,VWS V14.01,2013-05-21 05:53:00,
2013-05-21 00:54:00,76.8,70.2,29.86,SW,224,0.0,6.0,80,0.00,,---,0.00,VWS V14.01,2013-05-21 05:54:00,
2013-05-21 00:55:00,76.8,70.2,29.86,SW,224,2.0,6.0,80,0.00,,---,0.00,VWS V14.01,2013-05-21 05:55:00,
2013-05-21 00:58:00,76.8,70.2,29.86,SW,230,2.0,6.0,80,0.00,,---,0.00,VWS V14.01,2013-05-21 05:58:00,
2013-05-21 00:59:00,76.8,70.2,29.86,WSW,240,1.0,6.0,80,0.00,,---,0.00,VWS V14.01,2013-05-21 05:59:00,
2013-05-21 01:00:00,76.8,70.2,29.86,WSW,253,1.0,6.0,80,0.00,,---,0.00,VWS V14.01,2013-05-21 06:00:00,
2013-05-21 01:03:00,76.7,70.4,29.86,WSW,240,2.0,3.0,81,0.00,,---,0.00,VWS V14.01,2013-05-21 06:03:00,
2013-05-21 01:04:00,76.7,70.4,29.86,SW,225,3.0,4.0,81,0.00,,---,0.00,VWS V14.01,2013-05-21 06:04:00,
2013-05-21 01:05:00,76.7,70.4,29.86,SW,225,0.0,4.0,81,0.00,,---,0.00,VWS V14.01,2013-05-21 06:05:00,
2013-05-21 01:06:00,76.7,70.4,29.86,SW,225,0.0,4.0,81,0.00,,---,0.00,VWS V14.01,2013-05-21 06:06:00,
2013-05-21 01:08:00,76.7,70.4,29.86,SSW,213,6.0,6.0,81,0.00,,---,0.00,VWS V14.01,2013-05-21 06:08:00,
2013-05-21 01:09:00,76.7,70.4,29.86,SW,225,0.0,6.0,81,0.00,,---,0.00,VWS V14.01,2013-05-21 06:09:00,
2013-05-21 01:10:00,76.6,70.3,29.86,West,261,1.0,6.0,81,0.00,,---,0.00,VWS V14.01,2013-05-21 06:10:00,
2013-05-21 01:11:00,76.6,70.3,29.86,WSW,251,2.0,6.0,81,0.00,,---,0.00,VWS V14.01,2013-05-21 06:11:00,
2013-05-21 01:13:00,76.6,70.3,29.86,NW,318,1.0,6.0,81,0.00,,---,0.00,VWS V14.01,2013-05-21 06:13:00,
2013-05-21 01:14:00,76.6,70.3,29.86,NW,318,0.0,6.0,81,0.00,,---,0.00,VWS V14.01,2013-05-21 06:14:00,
2013-05-21 01:15:00,76.6,70.3,29.87,SW,224,3.0,6.0,81,0.00,,---,0.00,VWS V14.01,2013-05-21 06:15:00,
2013-05-21 01:16:00,76.6,70.3,29.86,SW,228,3.0,3.0,81,0.00,,---,0.00,VWS V14.01,2013-05-21 06:16:00,
2013-05-21 01:18:00,76.5,70.2,29.86,SSW,204,1.0,5.0,81,0.00,,---,0.00,VWS V14.01,2013-05-21 06:18:00,
2013-05-21 01:19:00,76.5,70.2,29.86,SW,233,1.0,5.0,81,0.00,,---,0.00,VWS V14.01,2013-05-21 06:19:00,
2013-05-21 01:20:00,76.5,70.2,29.86,SSW,202,5.0,5.0,81,0.00,,---,0.00,VWS V14.01,2013-05-21 06:20:00,
2013-05-21 01:21:00,76.5,70.2,29.86,SW,233,2.0,5.0,81,0.00,,---,0.00,VWS V14.01,2013-05-21 06:21:00,
2013-05-21 01:23:00,76.5,70.2,29.86,SW,225,2.0,5.0,81,0.00,,---,0.00,VWS V14.01,2013-05-21 06:23:00,
2013-05-21 01:24:00,76.5,70.2,29.86,SSW,207,6.0,6.0,81,0.00,,---,0.00,VWS V14.01,2013-05-21 06:24:00,
2013-05-21 01:25:00,76.5,70.2,29.86,WSW,240,1.0,6.0,81,0.00,,---,0.00,VWS V14.01,2013-05-21 06:25:00,
2013-05-21 01:26:00,76.5,70.2,29.86,SSW,200,2.0,6.0,81,0.00,,---,0.00,VWS V14.01,2013-05-21 06:26:00,
2013-05-21 01:28:00,76.5,70.2,29.86,SW,224,0.0,6.0,81,0.00,,---,0.00,VWS V14.01,2013-05-21 06:28:00,
2013-05-21 01:29:00,76.5,70.2,29.86,SW,236,2.0,6.0,81,0.00,,---,0.00,VWS V14.01,2013-05-21 06:29:00,
2013-05-21 01:30:00,76.5,70.2,29.86,WSW,237,1.0,6.0,81,0.00,,---,0.00,VWS V14.01,2013-05-21 06:30:00,
2013-05-21 01:31:00,76.6,70.3,29.87,SW,217,4.0,7.0,81,0.00,,---,0.00,VWS V14.01,2013-05-21 06:31:00,
2013-05-21 01:34:00,76.6,70.3,29.87,WSW,240,1.0,7.0,81,0.00,,---,0.00,VWS V14.01,2013-05-21 06:34:00,
2013-05-21 01:35:00,76.6,70.3,29.87,SW,221,2.0,7.0,81,0.00,,---,0.00,VWS V14.01,2013-05-21 06:35:00,
2013-05-21 01:36:00,76.6,70.3,29.87,SW,216,1.0,7.0,81,0.00,,---,0.00,VWS V14.01,2013-05-21 06:36:00,
2013-05-21 01:39:00,76.7,70.4,29.87,South,183,3.0,7.0,81,0.00,,---,0.00,VWS V14.01,2013-05-21 06:39:00,
2013-05-21 01:40:00,76.7,70.4,29.87,SSW,197,2.0,7.0,81,0.00,,---,0.00,VWS V14.01,2013-05-21 06:40:00,
2013-05-21 01:41:00,76.7,70.4,29.87,SW,226,0.0,7.0,81,0.00,,---,0.00,VWS V14.01,2013-05-21 06:41:00,
2013-05-21 01:42:00,76.7,70.4,29.87,SW,225,0.0,7.0,81,0.00,,---,0.00,VWS V14.01,2013-05-21 06:42:00,
2013-05-21 01:44:00,76.7,70.4,29.87,SSW,213,5.0,7.0,81,0.00,,---,0.00,VWS V14.01,2013-05-21 06:44:00,
2013-05-21 01:45:00,76.7,70.4,29.87,WSW,242,2.0,10.0,81,0.00,,---,0.00,VWS V14.01,2013-05-21 06:45:00,
2013-05-21 01:46:00,76.7,70.4,29.86,WSW,247,3.0,5.0,81,0.00,,---,0.00,VWS V14.01,2013-05-21 06:46:00,
2013-05-21 01:47:00,76.7,70.4,29.87,SW,231,2.0,5.0,81,0.00,,---,0.00,VWS V14.01,2013-05-21 06:47:00,
2013-05-21 01:49:00,76.7,70.4,29.86,SW,224,3.0,5.0,81,0.00,,---,0.00,VWS V14.01,2013-05-21 06:49:00,
2013-05-21 01:50:00,76.7,70.4,29.86,SW,233,4.0,5.0,81,0.00,,---,0.00,VWS V14.01,2013-05-21 06:50:00,
2013-05-21 01:51:00,76.7,70.4,29.87,SSE,155,7.0,7.0,81,0.00,,---,0.00,VWS V14.01,2013-05-21 06:51:00,
2013-05-21 01:52:00,76.7,70.4,29.86,WSW,247,4.0,7.0,81,0.00,,---,0.00,VWS V14.01,2013-05-21 06:52:00,
2013-05-21 01:54:00,76.7,70.4,29.87,WSW,243,1.0,7.0,81,0.01,,---,0.01,VWS V14.01,2013-05-21 06:54:00,
2013-05-21 01:55:00,76.7,70.8,29.86,WSW,241,0.0,7.0,82,0.03,,---,0.03,VWS V14.01,2013-05-21 06:55:00,
2013-05-21 01:57:00,76.6,71.4,29.86,WSW,250,1.0,7.0,84,0.06,,---,0.06,VWS V14.01,2013-05-21 06:57:00,
2013-05-21 01:59:00,76.3,71.5,29.86,WSW,251,0.0,7.0,85,0.07,,---,0.07,VWS V14.01,2013-05-21 06:59:00,
2013-05-21 02:00:00,76.1,71.6,29.86,West,278,0.0,7.0,86,0.07,,---,0.07,VWS V14.01,2013-05-21 07:00:00,
2013-05-21 02:02:00,75.9,71.4,29.86,SSW,212,0.0,4.0,86,0.07,,---,0.07,VWS V14.01,2013-05-21 07:02:00,
2013-05-21 02:04:00,75.6,71.5,29.86,SSW,211,0.0,4.0,87,0.07,,---,0.07,VWS V14.01,2013-05-21 07:04:00,
2013-05-21 02:05:00,75.4,71.3,29.86,SSW,212,0.0,4.0,87,0.07,,---,0.07,VWS V14.01,2013-05-21 07:05:00,
2013-05-21 02:06:00,75.4,71.3,29.87,SSW,211,0.0,4.0,87,0.07,,---,0.07,VWS V14.01,2013-05-21 07:06:00,
2013-05-21 02:07:00,75.2,71.4,29.86,SSW,211,0.0,4.0,88,0.07,,---,0.07,VWS V14.01,2013-05-21 07:07:00,
2013-05-21 02:09:00,74.9,71.1,29.86,WSW,257,1.0,4.0,88,0.07,,---,0.07,VWS V14.01,2013-05-21 07:09:00,
2013-05-21 02:10:00,74.8,71.0,29.86,WSW,257,0.0,4.0,88,0.07,,---,0.07,VWS V14.01,2013-05-21 07:10:00,
2013-05-21 02:11:00,74.8,71.0,29.86,WSW,243,1.0,4.0,88,0.07,,---,0.07,VWS V14.01,2013-05-21 07:11:00,
2013-05-21 02:12:00,74.7,70.9,29.86,SW,222,3.0,4.0,88,0.07,,---,0.07,VWS V14.01,2013-05-21 07:12:00,
2013-05-21 02:14:00,74.6,70.8,29.86,SSW,206,2.0,4.0,88,0.07,,---,0.07,VWS V14.01,2013-05-21 07:14:00,
2013-05-21 02:15:00,74.6,70.8,29.86,SW,224,3.0,5.0,88,0.07,,---,0.07,VWS V14.01,2013-05-21 07:15:00,
2013-05-21 02:16:00,74.6,70.8,29.86,SW,217,5.0,5.0,88,0.07,,---,0.07,VWS V14.01,2013-05-21 07:16:00,
2013-05-21 02:17:00,74.6,71.2,29.86,SW,226,0.0,5.0,89,0.07,,---,0.07,VWS V14.01,2013-05-21 07:17:00,
2013-05-21 02:18:00,74.6,70.8,29.87,SW,214,1.0,5.0,88,0.07,,---,0.07,VWS V14.01,2013-05-21 07:18:00,
2013-05-21 02:19:00,74.7,71.2,29.87,SW,224,3.0,5.0,89,0.07,,---,0.07,VWS V14.01,2013-05-21 07:19:00,
2013-05-21 02:20:00,74.6,71.2,29.86,WSW,237,2.0,5.0,89,0.07,,---,0.07,VWS V14.01,2013-05-21 07:20:00,
2013-05-21 02:21:00,74.6,71.2,29.86,WSW,237,0.0,5.0,89,0.07,,---,0.07,VWS V14.01,2013-05-21 07:21:00,
2013-05-21 02:22:00,74.6,71.2,29.86,SW,224,0.0,5.0,89,0.07,,---,0.07,VWS V14.01,2013-05-21 07:22:00,
2013-05-21 02:23:00,74.6,71.2,29.86,SW,224,0.0,5.0,89,0.07,,---,0.07,VWS V14.01,2013-05-21 07:23:00,
2013-05-21 02:24:00,74.6,71.2,29.86,SW,224,0.0,5.0,89,0.07,,---,0.07,VWS V14.01,2013-05-21 07:24:00,
2013-05-21 02:26:00,74.5,71.1,29.87,WSW,243,2.0,5.0,89,0.07,,---,0.07,VWS V14.01,2013-05-21 07:26:00,
2013-05-21 02:27:00,74.4,70.9,29.86,SW,217,3.0,5.0,89,0.07,,---,0.07,VWS V14.01,2013-05-21 07:27:00,
2013-05-21 02:28:00,74.4,70.9,29.86,SW,218,1.0,5.0,89,0.07,,---,0.07,VWS V14.01,2013-05-21 07:28:00,
2013-05-21 02:29:00,74.4,70.9,29.86,West,269,3.0,5.0,89,0.07,,---,0.07,VWS V14.01,2013-05-21 07:29:00,
2013-05-21 02:31:00,74.5,71.1,29.86,WSW,240,2.0,5.0,89,0.07,,---,0.07,VWS V14.01,2013-05-21 07:31:00,
2013-05-21 02:32:00,74.6,71.2,29.86,WSW,247,1.0,3.0,89,0.07,,---,0.07,VWS V14.01,2013-05-21 07:32:00,
2013-05-21 02:34:00,74.6,71.2,29.86,WSW,245,2.0,4.0,89,0.07,,---,0.07,VWS V14.01,2013-05-21 07:34:00,
2013-05-21 02:36:00,74.6,70.8,29.85,SW,235,2.0,5.0,88,0.07,,---,0.07,VWS V14.01,2013-05-21 07:36:00,
2013-05-21 02:38:00,74.7,70.9,29.85,SW,224,2.0,5.0,88,0.07,,---,0.07,VWS V14.01,2013-05-21 07:38:00,
2013-05-21 02:39:00,74.7,70.9,29.85,WSW,244,2.0,5.0,88,0.07,,---,0.07,VWS V14.01,2013-05-21 07:39:00,
2013-05-21 02:41:00,74.7,70.9,29.85,WSW,258,2.0,5.0,88,0.07,,---,0.07,VWS V14.01,2013-05-21 07:41:00,
2013-05-21 02:43:00,74.8,71.0,29.85,SW,224,3.0,5.0,88,0.07,,---,0.07,VWS V14.01,2013-05-21 07:43:00,
2013-05-21 02:44:00,74.8,71.0,29.85,West,259,2.0,5.0,88,0.07,,---,0.07,VWS V14.01,2013-05-21 07:44:00,
2013-05-21 02:46:00,74.9,71.1,29.85,WNW,283,3.0,4.0,88,0.07,,---,0.07,VWS V14.01,2013-05-21 07:46:00,
2013-05-21 02:47:00,74.9,71.1,29.85,West,261,2.0,5.0,88,0.07,,---,0.07,VWS V14.01,2013-05-21 07:47:00,
2013-05-21 02:48:00,74.9,71.1,29.85,West,276,2.0,5.0,88,0.07,,---,0.07,VWS V14.01,2013-05-21 07:48:00,
2013-05-21 02:49:00,75.0,71.2,29.85,West,271,2.0,7.0,88,0.07,,---,0.07,VWS V14.01,2013-05-21 07:49:00,
2013-05-21 02:51:00,75.0,71.2,29.87,NNW,335,8.0,10.0,88,0.07,,---,0.07,VWS V14.01,2013-05-21 07:51:00,
2013-05-21 02:52:00,74.9,71.1,29.89,NW,304,12.0,18.0,88,0.07,,---,0.07,VWS V14.01,2013-05-21 07:52:00,
2013-05-21 02:53:00,74.8,70.3,29.88,WNW,283,14.0,18.0,86,0.07,,---,0.07,VWS V14.01,2013-05-21 07:53:00,
2013-05-21 02:54:00,74.6,69.4,29.89,West,270,11.0,18.0,84,0.07,,---,0.07,VWS V14.01,2013-05-21 07:54:00,
2013-05-21 02:55:00,74.4,68.6,29.89,NNW,330,2.0,18.0,82,0.07,,---,0.07,VWS V14.01,2013-05-21 07:55:00,
2013-05-21 02:56:00,74.1,67.9,29.88,NNW,328,0.0,18.0,81,0.07,,---,0.07,VWS V14.01,2013-05-21 07:56:00,
2013-05-21 02:57:00,73.6,67.1,29.88,NNW,333,6.0,18.0,80,0.07,,---,0.07,VWS V14.01,2013-05-21 07:57:00,
2013-05-21 02:58:00,73.4,66.5,29.87,WSW,257,1.0,18.0,79,0.07,,---,0.07,VWS V14.01,2013-05-21 07:58:00,
2013-05-21 02:59:00,73.1,65.8,29.87,West,271,1.0,18.0,78,0.07,,---,0.07,VWS V14.01,2013-05-21 07:59:00,
2013-05-21 03:00:00,72.9,65.7,29.87,WNW,295,1.0,18.0,78,0.07,,---,0.07,VWS V14.01,2013-05-21 08:00:00,
2013-05-21 03:01:00,72.4,65.2,29.87,WSW,255,1.0,3.0,78,0.00,,---,0.07,VWS V14.01,2013-05-21 08:01:00,
2013-05-21 03:03:00,72.2,65.3,29.88,West,269,2.0,3.0,79,0.00,,---,0.07,VWS V14.01,2013-05-21 08:03:00,
2013-05-21 03:04:00,71.8,64.9,29.89,WNW,283,1.0,4.0,79,0.00,,---,0.07,VWS V14.01,2013-05-21 08:04:00,
2013-05-21 03:05:00,71.8,64.9,29.89,SE,145,1.0,4.0,79,0.00,,---,0.07,VWS V14.01,2013-05-21 08:05:00,
2013-05-21 03:07:00,71.4,64.6,29.90,WNW,299,2.0,12.0,79,0.00,,---,0.07,VWS V14.01,2013-05-21 08:07:00,
2013-05-21 03:08:00,71.4,64.6,29.90,NW,308,4.0,12.0,79,0.00,,---,0.07,VWS V14.01,2013-05-21 08:08:00,
2013-05-21 03:10:00,71.0,64.2,29.89,NNW,328,2.0,12.0,79,0.00,,---,0.07,VWS V14.01,2013-05-21 08:10:00,
2013-05-21 03:13:00,70.7,64.2,29.89,WNW,295,0.0,12.0,80,0.00,,---,0.07,VWS V14.01,2013-05-21 08:13:00,
2013-05-21 03:15:00,70.5,64.4,29.89,WNW,297,4.0,12.0,81,0.00,,---,0.07,VWS V14.01,2013-05-21 08:15:00,
2013-05-21 03:18:00,70.1,64.4,29.89,NW,304,1.0,9.0,82,0.03,,---,0.10,VWS V14.01,2013-05-21 08:18:00,
2013-05-21 03:19:00,70.0,64.6,29.89,WNW,300,1.0,9.0,83,0.07,,---,0.14,VWS V14.01,2013-05-21 08:19:00,
2013-05-21 03:20:00,69.7,64.7,29.89,ESE,120,4.0,9.0,84,0.12,,---,0.19,VWS V14.01,2013-05-21 08:20:00,
2013-05-21 03:23:00,69.0,64.3,29.89,West,278,0.0,9.0,85,0.13,,---,0.20,VWS V14.01,2013-05-21 08:23:00,
2013-05-21 03:24:00,68.8,64.4,29.89,West,278,0.0,9.0,86,0.13,,---,0.20,VWS V14.01,2013-05-21 08:24:00,
2013-05-21 03:25:00,68.4,64.4,29.89,West,278,0.0,9.0,87,0.13,,---,0.20,VWS V14.01,2013-05-21 08:25:00,
2013-05-21 03:28:00,68.0,64.3,29.90,West,278,0.0,9.0,88,0.13,,---,0.20,VWS V14.01,2013-05-21 08:28:00,
2013-05-21 03:29:00,67.8,64.4,29.90,West,278,0.0,9.0,89,0.13,,---,0.20,VWS V14.01,2013-05-21 08:29:00,
2013-05-21 03:30:00,67.7,64.3,29.90,West,278,0.0,9.0,89,0.13,,---,0.20,VWS V14.01,2013-05-21 08:30:00,
2013-05-21 03:33:00,67.4,64.4,29.90,West,278,0.0,0.0,90,0.14,,---,0.21,VWS V14.01,2013-05-21 08:33:00,
2013-05-21 03:34:00,67.4,64.4,29.89,West,278,0.0,0.0,90,0.14,,---,0.21,VWS V14.01,2013-05-21 08:34:00,
2013-05-21 03:35:00,67.2,64.5,29.89,West,278,0.0,2.0,91,0.14,,---,0.21,VWS V14.01,2013-05-21 08:35:00,
2013-05-21 03:36:00,67.2,64.5,29.88,West,278,2.0,2.0,91,0.14,,---,0.21,VWS V14.01,2013-05-21 08:36:00,
2013-05-21 03:38:00,66.9,64.2,29.88,West,278,0.0,2.0,91,0.14,,---,0.21,VWS V14.01,2013-05-21 08:38:00,
2013-05-21 03:39:00,66.9,64.2,29.88,West,278,0.0,2.0,91,0.14,,---,0.21,VWS V14.01,2013-05-21 08:39:00,
2013-05-21 03:41:00,66.8,64.4,29.88,West,278,0.0,2.0,92,0.14,,---,0.21,VWS V14.01,2013-05-21 08:41:00,
2013-05-21 03:43:00,66.7,64.3,29.88,West,276,1.0,2.0,92,0.14,,---,0.21,VWS V14.01,2013-05-21 08:43:00,
2013-05-21 03:44:00,66.6,64.2,29.88,West,276,0.0,2.0,92,0.14,,---,0.21,VWS V14.01,2013-05-21 08:44:00,
2013-05-21 03:46:00,66.6,64.5,29.88,West,276,0.0,0.0,93,0.14,,---,0.21,VWS V14.01,2013-05-21 08:46:00,
2013-05-21 03:48:00,66.6,64.5,29.88,West,276,0.0,0.0,93,0.14,,---,0.21,VWS V14.01,2013-05-21 08:48:00,
2013-05-21 03:49:00,66.6,64.5,29.88,West,278,0.0,0.0,93,0.14,,---,0.21,VWS V14.01,2013-05-21 08:49:00,
2013-05-21 03:51:00,66.5,64.4,29.88,West,278,1.0,1.0,93,0.14,,---,0.21,VWS V14.01,2013-05-21 08:51:00,
2013-05-21 03:53:00,66.4,64.3,29.88,West,278,0.0,1.0,93,0.14,,---,0.21,VWS V14.01,2013-05-21 08:53:00,
2013-05-21 03:54:00,66.4,64.6,29.88,West,276,0.0,1.0,94,0.14,,---,0.21,VWS V14.01,2013-05-21 08:54:00,
2013-05-21 03:56:00,66.4,64.6,29.87,West,276,0.0,1.0,94,0.14,,---,0.21,VWS V14.01,2013-05-21 08:56:00,
2013-05-21 03:57:00,66.4,64.6,29.87,West,278,0.0,1.0,94,0.14,,---,0.21,VWS V14.01,2013-05-21 08:57:00,
2013-05-21 03:58:00,66.3,64.5,29.87,West,278,0.0,1.0,94,0.14,,---,0.21,VWS V14.01,2013-05-21 08:58:00,
2013-05-21 04:00:00,66.3,64.5,29.87,West,276,2.0,2.0,94,0.14,,---,0.21,VWS V14.01,2013-05-21 09:00:00,
2013-05-21 04:01:00,66.3,64.5,29.87,West,276,1.0,1.0,94,0.14,,---,0.21,VWS V14.01,2013-05-21 09:01:00,
2013-05-21 04:02:00,66.3,64.5,29.87,West,276,1.0,1.0,94,0.14,,---,0.21,VWS V14.01,2013-05-21 09:02:00,
2013-05-21 04:03:00,66.3,64.5,29.87,West,276,1.0,1.0,94,0.14,,---,0.21,VWS V14.01,2013-05-21 09:03:00,
2013-05-21 04:05:00,66.3,64.5,29.87,West,278,0.0,2.0,94,0.14,,---,0.21,VWS V14.01,2013-05-21 09:05:00,
2013-05-21 04:06:00,66.3,64.5,29.87,West,278,0.0,2.0,94,0.14,,---,0.21,VWS V14.01,2013-05-21 09:06:00,
2013-05-21 04:07:00,66.3,64.5,29.87,West,278,0.0,2.0,94,0.14,,---,0.21,VWS V14.01,2013-05-21 09:07:00,
2013-05-21 04:08:00,66.3,64.5,29.87,West,278,0.0,2.0,94,0.14,,---,0.21,VWS V14.01,2013-05-21 09:08:00,
2013-05-21 04:10:00,66.3,64.5,29.87,West,276,0.0,2.0,94,0.14,,---,0.21,VWS V14.01,2013-05-21 09:10:00,
2013-05-21 04:11:00,66.3,64.5,29.87,West,278,0.0,2.0,94,0.14,,---,0.21,VWS V14.01,2013-05-21 09:11:00,
2013-05-21 04:12:00,66.3,64.5,29.87,West,278,0.0,2.0,94,0.14,,---,0.21,VWS V14.01,2013-05-21 09:12:00,
2013-05-21 04:13:00,66.3,64.5,29.87,West,278,0.0,2.0,94,0.14,,---,0.21,VWS V14.01,2013-05-21 09:13:00,
2013-05-21 04:15:00,66.2,64.4,29.87,West,278,0.0,2.0,94,0.14,,---,0.21,VWS V14.01,2013-05-21 09:15:00,
2013-05-21 04:17:00,66.2,64.4,29.87,West,277,0.0,0.0,94,0.14,,---,0.21,VWS V14.01,2013-05-21 09:17:00,
2013-05-21 04:19:00,66.2,64.4,29.87,West,278,0.0,1.0,94,0.14,,---,0.21,VWS V14.01,2013-05-21 09:19:00,
2013-05-21 04:20:00,66.2,64.4,29.87,West,278,0.0,1.0,94,0.14,,---,0.21,VWS V14.01,2013-05-21 09:20:00,
2013-05-21 04:22:00,66.2,64.4,29.87,West,278,0.0,1.0,94,0.14,,---,0.21,VWS V14.01,2013-05-21 09:22:00,
2013-05-21 04:23:00,66.1,64.3,29.86,West,278,0.0,1.0,94,0.14,,---,0.21,VWS V14.01,2013-05-21 09:23:00,
2013-05-21 04:24:00,66.1,64.3,29.86,West,278,0.0,1.0,94,0.14,,---,0.21,VWS V14.01,2013-05-21 09:24:00,
2013-05-21 04:25:00,66.1,64.3,29.86,West,278,1.0,1.0,94,0.14,,---,0.21,VWS V14.01,2013-05-21 09:25:00,
2013-05-21 04:27:00,66.1,64.6,29.86,West,278,0.0,1.0,95,0.14,,---,0.21,VWS V14.01,2013-05-21 09:27:00,
2013-05-21 04:28:00,66.1,64.6,29.86,West,278,0.0,1.0,95,0.14,,---,0.21,VWS V14.01,2013-05-21 09:28:00,
2013-05-21 04:29:00,66.1,64.6,29.86,West,278,0.0,1.0,95,0.14,,---,0.21,VWS V14.01,2013-05-21 09:29:00,
2013-05-21 04:30:00,66.1,64.6,29.86,West,278,0.0,1.0,95,0.14,,---,0.21,VWS V14.01,2013-05-21 09:30:00,
2013-05-21 04:32:00,66.2,64.7,29.86,West,277,0.0,1.0,95,0.01,,---,0.21,VWS V14.01,2013-05-21 09:32:00,
2013-05-21 04:33:00,66.2,64.7,29.87,West,278,0.0,1.0,95,0.01,,---,0.21,VWS V14.01,2013-05-21 09:33:00,
2013-05-21 04:34:00,66.1,64.6,29.87,WSW,258,1.0,2.0,95,0.01,,---,0.21,VWS V14.01,2013-05-21 09:34:00,
2013-05-21 04:35:00,66.2,64.7,29.87,SW,235,1.0,2.0,95,0.01,,---,0.21,VWS V14.01,2013-05-21 09:35:00,
2013-05-21 04:36:00,66.2,64.7,29.87,SW,235,0.0,2.0,95,0.01,,---,0.21,VWS V14.01,2013-05-21 09:36:00,
2013-05-21 04:37:00,66.1,64.6,29.87,WSW,237,1.0,2.0,95,0.01,,---,0.21,VWS V14.01,2013-05-21 09:37:00,
2013-05-21 04:38:00,66.1,64.6,29.87,WSW,237,0.0,2.0,95,0.01,,---,0.21,VWS V14.01,2013-05-21 09:38:00,
2013-05-21 04:39:00,66.2,64.7,29.87,SW,236,0.0,2.0,95,0.01,,---,0.21,VWS V14.01,2013-05-21 09:39:00,
2013-05-21 04:40:00,66.1,64.6,29.87,WSW,237,0.0,2.0,95,0.01,,---,0.21,VWS V14.01,2013-05-21 09:40:00,
2013-05-21 04:41:00,66.1,64.6,29.88,WSW,237,0.0,2.0,95,0.01,,---,0.21,VWS V14.01,2013-05-21 09:41:00,
2013-05-21 04:42:00,66.1,64.6,29.88,SW,236,0.0,2.0,95,0.01,,---,0.21,VWS V14.01,2013-05-21 09:42:00,
2013-05-21 04:44:00,66.0,64.5,29.88,SW,236,0.0,2.0,95,0.01,,---,0.21,VWS V14.01,2013-05-21 09:44:00,
2013-05-21 04:45:00,66.1,64.9,29.88,SW,235,1.0,2.0,96,0.01,,---,0.21,VWS V14.01,2013-05-21 09:45:00,
2013-05-21 04:46:00,66.0,64.5,29.87,WSW,237,0.0,1.0,95,0.00,,---,0.21,VWS V14.01,2013-05-21 09:46:00,
2013-05-21 04:48:00,66.0,64.8,29.87,WSW,237,0.0,0.0,96,0.00,,---,0.21,VWS V14.01,2013-05-21 09:48:00,
2013-05-21 04:49:00,66.0,64.8,29.87,WSW,237,0.0,0.0,96,0.00,,---,0.21,VWS V14.01,2013-05-21 09:49:00,
2013-05-21 04:50:00,66.0,64.8,29.87,WSW,237,0.0,0.0,96,0.00,,---,0.21,VWS V14.01,2013-05-21 09:50:00,
2013-05-21 04:51:00,65.9,64.7,29.88,WSW,237,0.0,0.0,96,0.00,,---,0.21,VWS V14.01,2013-05-21 09:51:00,
2013-05-21 04:54:00,65.9,64.7,29.88,SW,236,0.0,0.0,96,0.00,,---,0.21,VWS V14.01,2013-05-21 09:54:00,
2013-05-21 04:55:00,65.9,64.7,29.88,WSW,237,0.0,0.0,96,0.00,,---,0.21,VWS V14.01,2013-05-21 09:55:00,
2013-05-21 04:56:00,65.9,64.7,29.88,SW,236,0.0,0.0,96,0.00,,---,0.21,VWS V14.01,2013-05-21 09:56:00,
2013-05-21 04:59:00,65.8,64.6,29.88,SW,235,0.0,0.0,96,0.00,,---,0.21,VWS V14.01,2013-05-21 09:59:00,
2013-05-21 05:00:00,65.8,64.6,29.88,SW,236,0.0,0.0,96,0.00,,---,0.21,VWS V14.01,2013-05-21 10:00:00,
2013-05-21 05:01:00,65.8,64.6,29.88,SW,236,0.0,0.0,96,0.00,,---,0.21,VWS V14.01,2013-05-21 10:01:00,
2013-05-21 05:04:00,65.8,64.6,29.89,WSW,237,0.0,0.0,96,0.00,,---,0.21,VWS V14.01,2013-05-21 10:04:00,
2013-05-21 05:05:00,65.8,64.6,29.89,WSW,237,0.0,0.0,96,0.00,,---,0.21,VWS V14.01,2013-05-21 10:05:00,
2013-05-21 05:06:00,65.8,64.6,29.89,WSW,237,0.0,0.0,96,0.00,,---,0.21,VWS V14.01,2013-05-21 10:06:00,
2013-05-21 05:09:00,65.7,64.5,29.89,WSW,237,0.0,0.0,96,0.00,,---,0.21,VWS V14.01,2013-05-21 10:09:00,
2013-05-21 05:10:00,65.7,64.5,29.89,SW,236,0.0,0.0,96,0.00,,---,0.21,VWS V14.01,2013-05-21 10:10:00,
2013-05-21 05:11:00,65.7,64.5,29.89,WSW,237,0.0,0.0,96,0.00,,---,0.21,VWS V14.01,2013-05-21 10:11:00,
2013-05-21 05:14:00,65.7,64.5,29.89,WSW,237,0.0,1.0,96,0.00,,---,0.21,VWS V14.01,2013-05-21 10:14:00,
2013-05-21 05:15:00,65.7,64.5,29.89,WSW,237,0.0,1.0,96,0.00,,---,0.21,VWS V14.01,2013-05-21 10:15:00,
2013-05-21 05:16:00,65.7,64.5,29.89,WNW,285,0.0,1.0,96,0.00,,---,0.21,VWS V14.01,2013-05-21 10:16:00,
2013-05-21 05:17:00,65.7,64.5,29.89,WNW,285,1.0,1.0,96,0.00,,---,0.21,VWS V14.01,2013-05-21 10:17:00,
2013-05-21 05:19:00,65.7,64.5,29.89,WNW,285,0.0,1.0,96,0.00,,---,0.21,VWS V14.01,2013-05-21 10:19:00,
2013-05-21 05:20:00,65.7,64.5,29.89,WNW,285,0.0,1.0,96,0.00,,---,0.21,VWS V14.01,2013-05-21 10:20:00,
2013-05-21 05:21:00,65.7,64.5,29.89,WNW,286,0.0,1.0,96,0.00,,---,0.21,VWS V14.01,2013-05-21 10:21:00,
2013-05-21 05:22:00,65.7,64.5,29.90,WNW,285,0.0,1.0,96,0.00,,---,0.21,VWS V14.01,2013-05-21 10:22:00,
2013-05-21 05:24:00,65.6,64.4,29.89,WNW,285,0.0,1.0,96,0.00,,---,0.21,VWS V14.01,2013-05-21 10:24:00,
2013-05-21 05:25:00,65.6,64.4,29.89,WNW,285,0.0,1.0,96,0.00,,---,0.21,VWS V14.01,2013-05-21 10:25:00,
2013-05-21 05:26:00,65.6,64.4,29.90,WNW,285,0.0,1.0,96,0.00,,---,0.21,VWS V14.01,2013-05-21 10:26:00,
2013-05-21 05:27:00,65.6,64.4,29.90,WNW,285,0.0,1.0,96,0.00,,---,0.21,VWS V14.01,2013-05-21 10:27:00,
2013-05-21 05:29:00,65.7,64.5,29.90,WNW,286,0.0,1.0,96,0.00,,---,0.21,VWS V14.01,2013-05-21 10:29:00,
2013-05-21 05:31:00,65.8,64.9,29.90,WNW,285,0.0,0.0,97,0.00,,---,0.21,VWS V14.01,2013-05-21 10:31:00,
2013-05-21 05:32:00,65.8,64.9,29.90,WNW,285,0.0,0.0,97,0.00,,---,0.21,VWS V14.01,2013-05-21 10:32:00,
2013-05-21 05:34:00,65.8,64.9,29.90,WNW,287,0.0,0.0,97,0.00,,---,0.21,VWS V14.01,2013-05-21 10:34:00,
2013-05-21 05:36:00,65.8,64.9,29.90,WNW,287,0.0,0.0,97,0.00,,---,0.21,VWS V14.01,2013-05-21 10:36:00,
2013-05-21 05:37:00,65.8,64.9,29.90,WNW,288,0.0,0.0,97,0.00,,---,0.21,VWS V14.01,2013-05-21 10:37:00,
2013-05-21 05:39:00,65.9,65.0,29.90,WNW,288,0.0,0.0,97,0.00,,---,0.21,VWS V14.01,2013-05-21 10:39:00,
2013-05-21 05:41:00,65.9,65.0,29.91,WNW,287,0.0,0.0,97,0.00,,---,0.21,VWS V14.01,2013-05-21 10:41:00,
2013-05-21 05:42:00,65.9,65.0,29.91,WNW,288,0.0,0.0,97,0.00,,---,0.21,VWS V14.01,2013-05-21 10:42:00,
2013-05-21 05:44:00,65.9,65.0,29.91,WNW,288,0.0,0.0,97,0.00,,---,0.21,VWS V14.01,2013-05-21 10:44:00,
2013-05-21 05:46:00,65.9,65.0,29.91,WNW,287,0.0,0.0,97,0.00,,---,0.21,VWS V14.01,2013-05-21 10:46:00,
2013-05-21 05:47:00,65.9,65.0,29.91,WNW,287,0.0,0.0,97,0.00,,---,0.21,VWS V14.01,2013-05-21 10:47:00,
2013-05-21 05:48:00,66.0,65.1,29.91,WNW,287,0.0,0.0,97,0.00,,---,0.21,VWS V14.01,2013-05-21 10:48:00,
2013-05-21 05:49:00,66.0,65.1,29.90,WNW,287,0.0,0.0,97,0.00,,---,0.21,VWS V14.01,2013-05-21 10:49:00,
2013-05-21 05:51:00,66.0,65.1,29.90,WNW,287,0.0,0.0,97,0.00,,---,0.21,VWS V14.01,2013-05-21 10:51:00,
2013-05-21 05:52:00,66.0,65.1,29.90,WNW,287,0.0,0.0,97,0.00,,---,0.21,VWS V14.01,2013-05-21 10:52:00,
2013-05-21 05:53:00,66.0,65.1,29.90,WNW,287,0.0,0.0,97,0.00,,---,0.21,VWS V14.01,2013-05-21 10:53:00,
2013-05-21 05:54:00,66.0,65.1,29.90,WNW,287,0.0,0.0,97,0.00,,---,0.21,VWS V14.01,2013-05-21 10:54:00,
2013-05-21 05:56:00,65.9,65.0,29.90,WNW,288,0.0,0.0,97,0.00,,---,0.21,VWS V14.01,2013-05-21 10:56:00,
2013-05-21 05:57:00,65.9,65.0,29.91,WNW,287,0.0,0.0,97,0.00,,---,0.21,VWS V14.01,2013-05-21 10:57:00,
2013-05-21 05:58:00,65.9,65.0,29.91,WNW,287,0.0,0.0,97,0.00,,---,0.21,VWS V14.01,2013-05-21 10:58:00,
2013-05-21 05:59:00,65.9,65.0,29.91,WNW,287,0.0,0.0,97,0.00,,---,0.21,VWS V14.01,2013-05-21 10:59:00,
2013-05-21 06:01:00,65.9,65.0,29.91,WNW,287,0.0,0.0,97,0.00,,---,0.21,VWS V14.01,2013-05-21 11:01:00,
2013-05-21 06:02:00,65.9,65.0,29.91,WNW,287,0.0,0.0,97,0.00,,---,0.21,VWS V14.01,2013-05-21 11:02:00,
2013-05-21 06:03:00,65.9,65.0,29.91,WNW,287,0.0,0.0,97,0.00,,---,0.21,VWS V14.01,2013-05-21 11:03:00,
2013-05-21 06:04:00,65.9,65.0,29.91,WNW,287,0.0,0.0,97,0.00,,---,0.21,VWS V14.01,2013-05-21 11:04:00,
2013-05-21 06:06:00,65.9,65.0,29.91,WNW,287,0.0,0.0,97,0.00,,---,0.21,VWS V14.01,2013-05-21 11:06:00,
2013-05-21 06:07:00,65.9,65.0,29.91,WNW,287,0.0,0.0,97,0.00,,---,0.21,VWS V14.01,2013-05-21 11:07:00,
2013-05-21 06:08:00,65.9,65.0,29.91,WNW,287,0.0,0.0,97,0.00,,---,0.21,VWS V14.01,2013-05-21 11:08:00,
2013-05-21 06:09:00,65.9,65.0,29.91,WNW,287,0.0,0.0,97,0.00,,---,0.21,VWS V14.01,2013-05-21 11:09:00,
2013-05-21 06:11:00,65.9,65.0,29.91,WNW,287,0.0,0.0,97,0.00,,---,0.21,VWS V14.01,2013-05-21 11:11:00,
2013-05-21 06:12:00,65.9,65.0,29.91,WNW,287,0.0,0.0,97,0.00,,---,0.21,VWS V14.01,2013-05-21 11:12:00,
2013-05-21 06:13:00,65.9,65.0,29.91,WNW,287,0.0,0.0,97,0.00,,---,0.21,VWS V14.01,2013-05-21 11:13:00,
2013-05-21 06:14:00,65.9,65.0,29.91,WNW,287,0.0,0.0,97,0.00,,---,0.21,VWS V14.01,2013-05-21 11:14:00,
2013-05-21 06:16:00,66.0,65.1,29.91,WNW,287,0.0,0.0,97,0.00,,---,0.21,VWS V14.01,2013-05-21 11:16:00,
2013-05-21 06:17:00,66.0,65.1,29.91,WNW,287,0.0,0.0,97,0.00,,---,0.21,VWS V14.01,2013-05-21 11:17:00,
2013-05-21 06:18:00,66.0,65.1,29.91,WNW,287,0.0,0.0,97,0.00,,---,0.21,VWS V14.01,2013-05-21 11:18:00,
2013-05-21 06:20:00,66.0,65.1,29.91,WNW,287,0.0,0.0,97,0.00,,---,0.21,VWS V14.01,2013-05-21 11:20:00,
2013-05-21 06:22:00,66.0,65.1,29.91,WNW,287,0.0,0.0,97,0.00,,---,0.21,VWS V14.01,2013-05-21 11:22:00,
2013-05-21 06:23:00,66.0,65.1,29.91,WNW,287,0.0,0.0,97,0.00,,---,0.21,VWS V14.01,2013-05-21 11:23:00,
2013-05-21 06:25:00,66.0,65.1,29.91,WNW,288,0.0,0.0,97,0.00,,---,0.21,VWS V14.01,2013-05-21 11:25:00,
2013-05-21 06:27:00,66.0,65.1,29.91,WNW,287,0.0,0.0,97,0.00,,---,0.21,VWS V14.01,2013-05-21 11:27:00,
2013-05-21 06:28:00,66.1,65.2,29.91,WNW,287,0.0,0.0,97,0.00,,---,0.21,VWS V14.01,2013-05-21 11:28:00,
2013-05-21 06:30:00,66.1,65.2,29.91,WNW,287,0.0,0.0,97,0.00,,---,0.21,VWS V14.01,2013-05-21 11:30:00,
2013-05-21 06:32:00,66.1,65.2,29.91,WNW,287,0.0,1.0,97,0.00,,---,0.21,VWS V14.01,2013-05-21 11:32:00,
2013-05-21 06:33:00,66.1,65.2,29.91,WNW,287,0.0,1.0,97,0.00,,---,0.21,VWS V14.01,2013-05-21 11:33:00,
2013-05-21 06:35:00,66.1,65.2,29.91,WNW,287,0.0,1.0,97,0.00,,---,0.21,VWS V14.01,2013-05-21 11:35:00,
2013-05-21 06:38:00,66.2,65.3,29.91,WNW,287,0.0,1.0,97,0.00,,---,0.21,VWS V14.01,2013-05-21 11:38:00,
2013-05-21 06:40:00,66.2,65.3,29.90,WNW,288,1.0,1.0,97,0.00,,---,0.21,VWS V14.01,2013-05-21 11:40:00,
2013-05-21 06:43:00,66.3,65.4,29.90,WNW,285,0.0,1.0,97,0.00,,---,0.21,VWS V14.01,2013-05-21 11:43:00,
2013-05-21 06:46:00,66.3,65.4,29.90,WNW,285,0.0,0.0,97,0.00,,---,0.21,VWS V14.01,2013-05-21 11:46:00,
2013-05-21 06:48:00,66.4,65.5,29.89,WNW,285,0.0,1.0,97,0.00,,---,0.21,VWS V14.01,2013-05-21 11:48:00,
2013-05-21 06:51:00,66.5,65.6,29.89,WNW,285,0.0,1.0,97,0.00,,---,0.21,VWS V14.01,2013-05-21 11:51:00,
2013-05-21 06:53:00,66.6,65.7,29.89,WNW,285,0.0,1.0,97,0.00,,---,0.21,VWS V14.01,2013-05-21 11:53:00,
2013-05-21 06:54:00,66.7,65.8,29.89,WNW,285,0.0,1.0,97,0.00,,---,0.21,VWS V14.01,2013-05-21 11:54:00,
2013-05-21 06:56:00,66.8,65.9,29.89,WNW,286,0.0,1.0,97,0.00,,---,0.21,VWS V14.01,2013-05-21 11:56:00,
2013-05-21 06:58:00,67.0,66.1,29.89,WNW,285,0.0,1.0,97,0.00,,---,0.21,VWS V14.01,2013-05-21 11:58:00,
2013-05-21 06:59:00,67.1,66.5,29.88,WNW,286,0.0,1.0,98,0.00,,---,0.21,VWS V14.01,2013-05-21 11:59:00,
2013-05-21 07:01:00,67.2,66.3,29.88,WNW,288,0.0,1.0,97,0.00,,---,0.21,VWS V14.01,2013-05-21 12:01:00,
2013-05-21 07:03:00,67.3,66.4,29.88,WNW,289,1.0,1.0,97,0.00,,---,0.21,VWS V14.01,2013-05-21 12:03:00,
2013-05-21 07:04:00,67.3,66.4,29.88,WNW,288,1.0,1.0,97,0.00,,---,0.21,VWS V14.01,2013-05-21 12:04:00,
2013-05-21 07:06:00,67.4,66.5,29.88,WNW,288,1.0,1.0,97,0.00,,---,0.21,VWS V14.01,2013-05-21 12:06:00,
2013-05-21 07:08:00,67.4,66.5,29.88,NE,34,0.0,2.0,97,0.00,,---,0.21,VWS V14.01,2013-05-21 12:08:00,
2013-05-21 07:09:00,67.4,66.5,29.89,NE,34,0.0,2.0,97,0.00,,---,0.21,VWS V14.01,2013-05-21 12:09:00,
2013-05-21 07:12:00,67.5,66.6,29.89,West,269,0.0,2.0,97,0.00,,---,0.21,VWS V14.01,2013-05-21 12:12:00,
2013-05-21 07:14:00,67.5,66.6,29.89,WNW,301,0.0,2.0,97,0.00,,---,0.21,VWS V14.01,2013-05-21 12:14:00,
2013-05-21 07:17:00,67.6,66.7,29.89,WNW,300,0.0,0.0,97,0.00,,---,0.21,VWS V14.01,2013-05-21 12:17:00,
2013-05-21 07:19:00,67.6,66.7,29.89,WNW,300,0.0,0.0,97,0.00,,---,0.21,VWS V14.01,2013-05-21 12:19:00,
2013-05-21 07:22:00,67.7,66.8,29.89,WNW,299,0.0,0.0,97,0.00,,---,0.21,VWS V14.01,2013-05-21 12:22:00,
2013-05-21 07:24:00,67.9,67.0,29.89,WNW,299,0.0,0.0,97,0.00,,---,0.21,VWS V14.01,2013-05-21 12:24:00,
2013-05-21 07:27:00,68.0,67.1,29.90,WNW,300,0.0,1.0,97,0.00,,---,0.21,VWS V14.01,2013-05-21 12:27:00,
2013-05-21 07:29:00,68.1,67.2,29.90,WNW,300,0.0,1.0,97,0.00,,---,0.21,VWS V14.01,2013-05-21 12:29:00,
2013-05-21 07:30:00,68.1,67.2,29.89,WNW,300,0.0,1.0,97,0.00,,---,0.21,VWS V14.01,2013-05-21 12:30:00,
2013-05-21 07:32:00,68.4,67.5,29.89,WNW,299,0.0,0.0,97,0.00,,---,0.21,VWS V14.01,2013-05-21 12:32:00,
2013-05-21 07:34:00,68.5,67.6,29.89,WNW,300,0.0,0.0,97,0.00,,---,0.21,VWS V14.01,2013-05-21 12:34:00,
2013-05-21 07:37:00,68.7,67.8,29.89,WNW,300,0.0,0.0,97,0.00,,---,0.21,VWS V14.01,2013-05-21 12:37:00,
2013-05-21 07:39:00,68.8,67.9,29.89,WNW,300,0.0,0.0,97,0.00,,---,0.21,VWS V14.01,2013-05-21 12:39:00,
2013-05-21 07:40:00,68.8,67.9,29.89,WNW,300,0.0,0.0,97,0.00,,---,0.21,VWS V14.01,2013-05-21 12:40:00,
2013-05-21 07:42:00,69.0,67.8,29.90,WNW,300,0.0,0.0,96,0.00,,---,0.21,VWS V14.01,2013-05-21 12:42:00,
2013-05-21 07:44:00,69.0,67.8,29.89,WNW,300,0.0,1.0,96,0.00,,---,0.21,VWS V14.01,2013-05-21 12:44:00,
2013-05-21 07:45:00,69.0,67.8,29.89,WNW,299,0.0,1.0,96,0.00,,---,0.21,VWS V14.01,2013-05-21 12:45:00,
2013-05-21 07:47:00,69.1,67.9,29.90,WNW,300,0.0,0.0,96,0.00,,---,0.21,VWS V14.01,2013-05-21 12:47:00,
2013-05-21 07:49:00,69.2,68.0,29.90,WNW,300,0.0,0.0,96,0.00,,---,0.21,VWS V14.01,2013-05-21 12:49:00,
2013-05-21 07:50:00,69.3,68.1,29.90,WNW,300,0.0,0.0,96,0.00,,---,0.21,VWS V14.01,2013-05-21 12:50:00,
2013-05-21 07:52:00,69.5,68.3,29.90,WNW,300,0.0,1.0,96,0.00,,---,0.21,VWS V14.01,2013-05-21 12:52:00,
2013-05-21 07:54:00,69.6,68.4,29.90,WNW,300,0.0,1.0,96,0.00,,---,0.21,VWS V14.01,2013-05-21 12:54:00,
2013-05-21 07:55:00,69.7,68.5,29.90,WNW,300,0.0,1.0,96,0.00,,---,0.21,VWS V14.01,2013-05-21 12:55:00,
2013-05-21 07:58:00,69.9,68.7,29.90,WNW,300,0.0,1.0,96,0.00,,---,0.21,VWS V14.01,2013-05-21 12:58:00,
2013-05-21 07:59:00,70.0,68.8,29.90,WNW,300,0.0,1.0,96,0.00,,---,0.21,VWS V14.01,2013-05-21 12:59:00,
2013-05-21 08:00:00,70.1,68.9,29.90,WNW,300,0.0,1.0,96,0.00,,---,0.21,VWS V14.01,2013-05-21 13:00:00,
2013-05-21 08:03:00,70.2,69.0,29.90,WNW,299,0.0,0.0,96,0.00,,---,0.21,VWS V14.01,2013-05-21 13:03:00,
2013-05-21 08:04:00,70.3,68.8,29.90,WNW,300,0.0,0.0,95,0.00,,---,0.21,VWS V14.01,2013-05-21 13:04:00,
2013-05-21 08:05:00,70.3,68.8,29.90,WNW,300,0.0,0.0,95,0.00,,---,0.21,VWS V14.01,2013-05-21 13:05:00,
2013-05-21 08:06:00,70.4,68.9,29.91,WNW,299,0.0,0.0,95,0.00,,---,0.21,VWS V14.01,2013-05-21 13:06:00,
2013-05-21 08:08:00,70.5,69.0,29.91,WNW,300,0.0,0.0,95,0.00,,---,0.21,VWS V14.01,2013-05-21 13:08:00,
2013-05-21 08:10:00,70.6,69.1,29.91,WNW,299,0.0,0.0,95,0.00,,---,0.21,VWS V14.01,2013-05-21 13:10:00,
2013-05-21 08:11:00,70.6,69.1,29.91,WNW,299,0.0,0.0,95,0.00,,---,0.21,VWS V14.01,2013-05-21 13:11:00,
2013-05-21 08:13:00,70.7,69.2,29.91,WNW,300,0.0,0.0,95,0.00,,---,0.21,VWS V14.01,2013-05-21 13:13:00,
2013-05-21 08:15:00,70.7,69.2,29.91,ENE,65,0.0,1.0,95,0.00,,---,0.21,VWS V14.01,2013-05-21 13:15:00,
2013-05-21 08:16:00,70.7,68.9,29.91,ENE,65,0.0,0.0,94,0.00,,---,0.21,VWS V14.01,2013-05-21 13:16:00,
2013-05-21 08:18:00,70.7,69.0,29.91,ENE,67,0.0,1.0,94,0.00,,,0.21,weatherlink.com 1.10,2013-05-21 13:18:00,
2013-05-21 08:20:00,70.7,68.9,29.91,ENE,65,0.0,1.0,94,0.00,,---,0.21,VWS V14.01,2013-05-21 13:20:00,
2013-05-21 08:21:00,70.8,69.3,29.91,ENE,65,0.0,1.0,95,0.00,,---,0.21,VWS V14.01,2013-05-21 13:21:00,
2013-05-21 08:23:00,70.9,69.4,29.91,ENE,66,0.0,1.0,95,0.00,,---,0.21,VWS V14.01,2013-05-21 13:23:00,
2013-05-21 08:25:00,71.0,69.2,29.91,ENE,66,0.0,1.0,94,0.00,,---,0.21,VWS V14.01,2013-05-21 13:25:00,
2013-05-21 08:26:00,71.0,69.2,29.91,ENE,66,0.0,1.0,94,0.00,,---,0.21,VWS V14.01,2013-05-21 13:26:00,
2013-05-21 08:27:00,71.0,69.2,29.91,ENE,66,0.0,1.0,94,0.00,,---,0.21,VWS V14.01,2013-05-21 13:27:00,
2013-05-21 08:28:00,71.1,69.6,29.91,ENE,66,0.0,1.0,95,0.00,,---,0.21,VWS V14.01,2013-05-21 13:28:00,
2013-05-21 08:30:00,71.1,69.3,29.91,ENE,66,0.0,1.0,94,0.00,,---,0.21,VWS V14.01,2013-05-21 13:30:00,
2013-05-21 08:31:00,71.1,69.3,29.91,ENE,66,0.0,0.0,94,0.00,,---,0.21,VWS V14.01,2013-05-21 13:31:00,
2013-05-21 08:32:00,71.1,69.3,29.91,ENE,66,0.0,0.0,94,0.00,,---,0.21,VWS V14.01,2013-05-21 13:32:00,
2013-05-21 08:34:00,71.1,69.3,29.91,ENE,66,0.0,1.0,94,0.00,,---,0.21,VWS V14.01,2013-05-21 13:34:00,
2013-05-21 08:35:00,71.1,69.3,29.91,ENE,66,0.0,1.0,94,0.00,,---,0.21,VWS V14.01,2013-05-21 13:35:00,
2013-05-21 08:36:00,71.1,69.3,29.91,ENE,66,0.0,1.0,94,0.00,,---,0.21,VWS V14.01,2013-05-21 13:36:00,
2013-05-21 08:37:00,71.1,69.3,29.91,ENE,66,1.0,1.0,94,0.00,,---,0.21,VWS V14.01,2013-05-21 13:37:00,
2013-05-21 08:39:00,71.0,69.2,29.92,ENE,65,0.0,1.0,94,0.00,,---,0.21,VWS V14.01,2013-05-21 13:39:00,
2013-05-21 08:40:00,71.0,69.2,29.91,ENE,66,0.0,1.0,94,0.00,,---,0.21,VWS V14.01,2013-05-21 13:40:00,
2013-05-21 08:41:00,71.0,69.2,29.92,ENE,66,0.0,1.0,94,0.00,,---,0.21,VWS V14.01,2013-05-21 13:41:00,
2013-05-21 08:42:00,71.0,69.2,29.92,ENE,77,1.0,1.0,94,0.00,,---,0.21,VWS V14.01,2013-05-21 13:42:00,
2013-05-21 08:43:00,71.0,69.2,29.92,ENE,77,0.0,1.0,94,0.00,,---,0.21,VWS V14.01,2013-05-21 13:43:00,
2013-05-21 08:44:00,71.0,69.2,29.91,ENE,77,0.0,1.0,94,0.00,,---,0.21,VWS V14.01,2013-05-21 13:44:00,
2013-05-21 08:46:00,71.1,69.3,29.91,SW,236,2.0,2.0,94,0.00,,---,0.21,VWS V14.01,2013-05-21 13:46:00,
2013-05-21 08:48:00,71.1,69.3,29.91,WSW,237,0.0,2.0,94,0.00,,---,0.21,VWS V14.01,2013-05-21 13:48:00,
2013-05-21 08:49:00,71.2,69.4,29.91,WSW,252,2.0,3.0,94,0.00,,---,0.21,VWS V14.01,2013-05-21 13:49:00,
2013-05-21 08:51:00,71.2,69.4,29.91,WSW,251,1.0,3.0,94,0.00,,---,0.21,VWS V14.01,2013-05-21 13:51:00,
2013-05-21 08:52:00,71.3,69.5,29.92,WSW,256,2.0,3.0,94,0.00,,---,0.21,VWS V14.01,2013-05-21 13:52:00,
2013-05-21 08:53:00,71.3,69.5,29.92,WSW,257,1.0,3.0,94,0.00,,---,0.21,VWS V14.01,2013-05-21 13:53:00,
2013-05-21 08:54:00,71.3,69.2,29.92,West,259,1.0,4.0,93,0.00,,---,0.21,VWS V14.01,2013-05-21 13:54:00,
2013-05-21 08:56:00,71.4,69.3,29.92,West,259,0.0,4.0,93,0.00,,---,0.21,VWS V14.01,2013-05-21 13:56:00,
2013-05-21 08:57:00,71.5,69.7,29.92,West,259,1.0,4.0,94,0.00,,---,0.21,VWS V14.01,2013-05-21 13:57:00,
2013-05-21 08:58:00,71.6,69.8,29.92,WSW,248,1.0,4.0,94,0.00,,---,0.21,VWS V14.01,2013-05-21 13:58:00,
2013-05-21 08:59:00,71.7,69.6,29.92,WSW,257,0.0,4.0,93,0.00,,---,0.21,VWS V14.01,2013-05-21 13:59:00,
2013-05-21 09:02:00,71.9,70.1,29.92,WSW,257,0.0,0.0,94,0.00,,---,0.21,VWS V14.01,2013-05-21 14:02:00,
2013-05-21 09:03:00,72.0,70.2,29.92,WSW,257,0.0,0.0,94,0.00,,---,0.21,VWS V14.01,2013-05-21 14:03:00,
2013-05-21 09:04:00,72.2,70.4,29.92,WSW,258,0.0,1.0,94,0.00,,---,0.21,VWS V14.01,2013-05-21 14:04:00,
2013-05-21 09:05:00,72.3,70.5,29.92,SW,224,1.0,2.0,94,0.00,,---,0.21,VWS V14.01,2013-05-21 14:05:00,
2013-05-21 09:07:00,72.4,70.3,29.92,WSW,248,0.0,2.0,93,0.00,,---,0.21,VWS V14.01,2013-05-21 14:07:00,
2013-05-21 09:08:00,72.5,70.4,29.92,WSW,247,0.0,2.0,93,0.00,,---,0.21,VWS V14.01,2013-05-21 14:08:00,
2013-05-21 09:10:00,72.6,70.5,29.92,West,264,1.0,2.0,93,0.00,,---,0.21,VWS V14.01,2013-05-21 14:10:00,
2013-05-21 09:12:00,72.7,70.2,29.92,SW,233,2.0,2.0,92,0.00,,---,0.21,VWS V14.01,2013-05-21 14:12:00,
2013-05-21 09:13:00,72.8,70.3,29.92,SW,233,1.0,2.0,92,0.00,,---,0.21,VWS V14.01,2013-05-21 14:13:00,
2013-05-21 09:15:00,73.1,70.6,29.92,SW,233,0.0,2.0,92,0.00,,---,0.21,VWS V14.01,2013-05-21 14:15:00,
2013-05-21 09:17:00,73.2,70.7,29.92,West,273,1.0,3.0,92,0.00,,---,0.21,VWS V14.01,2013-05-21 14:17:00,
2013-05-21 09:18:00,73.4,70.9,29.92,West,278,2.0,3.0,92,0.00,,---,0.21,VWS V14.01,2013-05-21 14:18:00,
2013-05-21 09:19:00,73.5,71.0,29.92,West,278,0.0,3.0,92,0.00,,---,0.21,VWS V14.01,2013-05-21 14:19:00,
2013-05-21 09:20:00,73.5,71.0,29.93,West,271,2.0,3.0,92,0.00,,---,0.21,VWS V14.01,2013-05-21 14:20:00,
2013-05-21 09:22:00,73.6,70.8,29.93,West,273,0.0,3.0,91,0.00,,---,0.21,VWS V14.01,2013-05-21 14:22:00,
2013-05-21 09:23:00,73.7,70.9,29.93,West,279,1.0,3.0,91,0.00,,---,0.21,VWS V14.01,2013-05-21 14:23:00,
2013-05-21 09:24:00,73.7,70.9,29.93,West,279,2.0,3.0,91,0.00,,---,0.21,VWS V14.01,2013-05-21 14:24:00,
2013-05-21 09:25:00,73.7,70.9,29.93,West,273,1.0,3.0,91,0.00,,---,0.21,VWS V14.01,2013-05-21 14:25:00,
2013-05-21 09:27:00,73.7,70.9,29.93,West,271,1.0,3.0,91,0.00,,---,0.21,VWS V14.01,2013-05-21 14:27:00,
2013-05-21 09:28:00,73.8,71.0,29.93,West,269,0.0,3.0,91,0.00,,---,0.21,VWS V14.01,2013-05-21 14:28:00,
2013-05-21 09:29:00,73.8,71.0,29.93,West,273,0.0,3.0,91,0.00,,---,0.21,VWS V14.01,2013-05-21 14:29:00,
2013-05-21 09:31:00,73.9,71.1,29.93,West,273,0.0,0.0,91,0.00,,---,0.21,VWS V14.01,2013-05-21 14:31:00,
2013-05-21 09:32:00,73.9,71.1,29.93,West,273,0.0,0.0,91,0.00,,---,0.21,VWS V14.01,2013-05-21 14:32:00,
2013-05-21 09:33:00,73.9,71.1,29.93,West,277,1.0,2.0,91,0.00,,---,0.21,VWS V14.01,2013-05-21 14:33:00,
2013-05-21 09:34:00,73.9,71.1,29.94,West,274,2.0,2.0,91,0.00,,---,0.21,VWS V14.01,2013-05-21 14:34:00,
2013-05-21 09:36:00,74.0,71.2,29.94,West,269,1.0,2.0,91,0.00,,---,0.21,VWS V14.01,2013-05-21 14:36:00,
2013-05-21 09:37:00,74.0,71.2,29.94,WNW,285,2.0,2.0,91,0.00,,---,0.21,VWS V14.01,2013-05-21 14:37:00,
2013-05-21 09:38:00,74.0,71.2,29.93,WNW,285,2.0,3.0,91,0.00,,---,0.21,VWS V14.01,2013-05-21 14:38:00,
2013-05-21 09:39:00,74.0,71.2,29.93,WNW,286,1.0,3.0,91,0.00,,---,0.21,VWS V14.01,2013-05-21 14:39:00,
2013-05-21 09:41:00,74.0,71.2,29.93,WNW,283,1.0,3.0,91,0.00,,---,0.21,VWS V14.01,2013-05-21 14:41:00,
2013-05-21 09:42:00,74.0,71.5,29.93,WNW,283,1.0,3.0,92,0.00,,---,0.21,VWS V14.01,2013-05-21 14:42:00,
2013-05-21 09:43:00,74.0,71.5,29.93,WNW,283,2.0,3.0,92,0.01,,---,0.22,VWS V14.01,2013-05-21 14:43:00,
2013-05-21 09:44:00,74.0,71.5,29.94,WNW,282,1.0,3.0,92,0.01,,---,0.22,VWS V14.01,2013-05-21 14:44:00,
2013-05-21 09:46:00,74.1,71.6,29.94,West,271,0.0,0.0,92,0.01,,---,0.22,VWS V14.01,2013-05-21 14:46:00,
2013-05-21 09:47:00,74.1,71.6,29.94,West,271,0.0,0.0,92,0.02,,---,0.23,VWS V14.01,2013-05-21 14:47:00,
2013-05-21 09:48:00,74.2,72.1,29.94,West,271,0.0,0.0,93,0.02,,---,0.23,VWS V14.01,2013-05-21 14:48:00,
2013-05-21 09:49:00,74.2,72.1,29.94,West,271,0.0,0.0,93,0.02,,---,0.23,VWS V14.01,2013-05-21 14:49:00,
2013-05-21 09:50:00,74.2,72.1,29.94,West,271,0.0,0.0,93,0.02,,---,0.23,VWS V14.01,2013-05-21 14:50:00,
2013-05-21 09:51:00,74.2,72.1,29.94,West,271,0.0,0.0,93,0.02,,---,0.23,VWS V14.01,2013-05-21 14:51:00,
2013-05-21 09:52:00,74.2,72.1,29.94,West,271,1.0,1.0,93,0.02,,---,0.23,VWS V14.01,2013-05-21 14:52:00,
2013-05-21 09:53:00,74.2,72.1,29.94,West,271,1.0,2.0,93,0.02,,---,0.23,VWS V14.01,2013-05-21 14:53:00,
2013-05-21 09:54:00,74.1,71.9,29.94,West,271,0.0,2.0,93,0.02,,---,0.23,VWS V14.01,2013-05-21 14:54:00,
2013-05-21 09:55:00,74.1,71.9,29.94,NW,325,2.0,2.0,93,0.02,,---,0.23,VWS V14.01,2013-05-21 14:55:00,
2013-05-21 09:56:00,73.8,71.3,29.94,NE,37,4.0,4.0,92,0.02,,---,0.23,VWS V14.01,2013-05-21 14:56:00,
2013-05-21 09:57:00,73.2,69.8,29.94,North,10,1.0,6.0,89,0.02,,---,0.23,VWS V14.01,2013-05-21 14:57:00,
2013-05-21 09:59:00,72.4,68.0,29.95,NNE,21,1.0,6.0,86,0.02,,---,0.23,VWS V14.01,2013-05-21 14:59:00,
2013-05-21 10:00:00,71.7,67.3,29.94,WSW,242,2.0,6.0,86,0.02,,---,0.23,VWS V14.01,2013-05-21 15:00:00,
2013-05-21 10:01:00,71.1,66.7,29.94,East,93,1.0,2.0,86,0.02,,---,0.23,VWS V14.01,2013-05-21 15:01:00,
2013-05-21 10:02:00,70.8,66.7,29.94,WSW,242,3.0,5.0,87,0.03,,---,0.24,VWS V14.01,2013-05-21 15:02:00,
2013-05-21 10:04:00,70.3,66.2,29.94,West,263,4.0,7.0,87,0.03,,---,0.24,VWS V14.01,2013-05-21 15:04:00,
2013-05-21 10:05:00,69.8,65.8,29.95,West,266,5.0,7.0,87,0.03,,---,0.24,VWS V14.01,2013-05-21 15:05:00,
2013-05-21 10:07:00,69.4,65.7,29.95,NNW,332,2.0,11.0,88,0.03,,---,0.24,VWS V14.01,2013-05-21 15:07:00,
2013-05-21 10:08:00,69.2,65.5,29.95,NE,37,2.0,11.0,88,0.03,,---,0.24,VWS V14.01,2013-05-21 15:08:00,
2013-05-21 10:09:00,68.8,65.8,29.94,North,353,1.0,11.0,90,0.03,,---,0.24,VWS V14.01,2013-05-21 15:09:00,
2013-05-21 10:10:00,68.7,65.7,29.94,NE,34,3.0,11.0,90,0.03,,---,0.24,VWS V14.01,2013-05-21 15:10:00,
2013-05-21 10:12:00,68.3,65.3,29.93,NE,51,2.0,11.0,90,0.03,,---,0.24,VWS V14.01,2013-05-21 15:12:00,
2013-05-21 10:13:00,68.1,65.4,29.93,NE,53,2.0,11.0,91,0.03,,---,0.24,VWS V14.01,2013-05-21 15:13:00,
2013-05-21 10:14:00,68.0,65.3,29.93,North,350,4.0,11.0,91,0.03,,---,0.24,VWS V14.01,2013-05-21 15:14:00,
2013-05-21 10:15:00,67.8,65.4,29.93,NW,312,2.0,11.0,92,0.03,,---,0.24,VWS V14.01,2013-05-21 15:15:00,
2013-05-21 10:17:00,67.7,65.3,29.94,WNW,291,1.0,2.0,92,0.03,,---,0.24,VWS V14.01,2013-05-21 15:17:00,
2013-05-21 10:18:00,67.6,65.2,29.94,WSW,248,0.0,2.0,92,0.03,,---,0.24,VWS V14.01,2013-05-21 15:18:00,
2013-05-21 10:19:00,67.5,65.1,29.94,WSW,257,1.0,2.0,92,0.03,,---,0.24,VWS V14.01,2013-05-21 15:19:00,
2013-05-21 10:20:00,67.5,65.1,29.93,NW,326,1.0,2.0,92,0.03,,---,0.24,VWS V14.01,2013-05-21 15:20:00,
2013-05-21 10:22:00,67.4,65.3,29.93,NNW,328,2.0,2.0,93,0.03,,---,0.24,VWS V14.01,2013-05-21 15:22:00,
2013-05-21 10:23:00,67.4,65.3,29.93,North,3,0.0,2.0,93,0.03,,---,0.24,VWS V14.01,2013-05-21 15:23:00,
2013-05-21 10:24:00,67.3,65.2,29.93,North,3,0.0,2.0,93,0.03,,---,0.24,VWS V14.01,2013-05-21 15:24:00,
2013-05-21 10:25:00,67.3,65.2,29.93,North,353,0.0,2.0,93,0.03,,---,0.24,VWS V14.01,2013-05-21 15:25:00,
2013-05-21 10:26:00,67.4,65.3,29.93,West,271,1.0,2.0,93,0.03,,---,0.24,VWS V14.01,2013-05-21 15:26:00,
2013-05-21 10:27:00,67.4,65.3,29.93,West,271,0.0,2.0,93,0.03,,---,0.24,VWS V14.01,2013-05-21 15:27:00,
2013-05-21 10:28:00,67.4,65.6,29.93,West,271,0.0,2.0,94,0.03,,---,0.24,VWS V14.01,2013-05-21 15:28:00,
2013-05-21 10:29:00,67.4,65.6,29.93,West,271,0.0,2.0,94,0.03,,---,0.24,VWS V14.01,2013-05-21 15:29:00,
2013-05-21 10:30:00,67.5,65.7,29.93,NNW,343,1.0,2.0,94,0.03,,---,0.24,VWS V14.01,2013-05-21 15:30:00,
2013-05-21 10:31:00,67.5,65.7,29.93,NNW,344,2.0,2.0,94,0.03,,---,0.24,VWS V14.01,2013-05-21 15:31:00,
2013-05-21 10:32:00,67.5,65.7,29.93,NW,314,1.0,2.0,94,0.03,,---,0.24,VWS V14.01,2013-05-21 15:32:00,
2013-05-21 10:33:00,67.5,65.4,29.93,East,87,1.0,4.0,93,0.03,,---,0.24,VWS V14.01,2013-05-21 15:33:00,
2013-05-21 10:34:00,67.4,65.3,29.93,East,87,1.0,4.0,93,0.03,,---,0.24,VWS V14.01,2013-05-21 15:34:00,
2013-05-21 10:35:00,67.3,65.2,29.93,East,84,4.0,5.0,93,0.03,,---,0.24,VWS V14.01,2013-05-21 15:35:00,
2013-05-21 10:36:00,67.3,65.2,29.92,NE,48,2.0,5.0,93,0.03,,---,0.24,VWS V14.01,2013-05-21 15:36:00,
2013-05-21 10:37:00,67.3,65.2,29.92,NNE,22,2.0,5.0,93,0.03,,---,0.24,VWS V14.01,2013-05-21 15:37:00,
2013-05-21 10:38:00,67.3,65.2,29.92,NE,45,2.0,5.0,93,0.03,,---,0.24,VWS V14.01,2013-05-21 15:38:00,
2013-05-21 10:39:00,67.2,65.1,29.92,East,87,4.0,5.0,93,0.03,,---,0.24,VWS V14.01,2013-05-21 15:39:00,
2013-05-21 10:40:00,67.1,65.0,29.92,North,354,3.0,5.0,93,0.03,,---,0.24,VWS V14.01,2013-05-21 15:40:00,
2013-05-21 10:41:00,67.1,65.0,29.92,North,354,2.0,5.0,93,0.03,,---,0.24,VWS V14.01,2013-05-21 15:41:00,
2013-05-21 10:43:00,67.0,64.6,29.92,NNW,337,2.0,5.0,92,0.03,,---,0.24,VWS V14.01,2013-05-21 15:43:00,
2013-05-21 10:44:00,66.9,64.8,29.92,ENE,70,1.0,5.0,93,0.03,,---,0.24,VWS V14.01,2013-05-21 15:44:00,
2013-05-21 10:45:00,66.9,64.8,29.92,North,3,0.0,5.0,93,0.03,,---,0.24,VWS V14.01,2013-05-21 15:45:00,
2013-05-21 10:46:00,66.9,64.8,29.92,East,89,3.0,3.0,93,0.02,,---,0.24,VWS V14.01,2013-05-21 15:46:00,
2013-05-21 10:48:00,66.9,64.8,29.92,East,89,0.0,3.0,93,0.02,,---,0.24,VWS V14.01,2013-05-21 15:48:00,
2013-05-21 10:49:00,66.9,64.8,29.92,East,87,1.0,3.0,93,0.02,,---,0.24,VWS V14.01,2013-05-21 15:49:00,
2013-05-21 10:50:00,67.0,64.9,29.91,NNE,27,1.0,3.0,93,0.02,,---,0.24,VWS V14.01,2013-05-21 15:50:00,
2013-05-21 10:51:00,67.0,64.9,29.91,NE,34,2.0,3.0,93,0.02,,---,0.24,VWS V14.01,2013-05-21 15:51:00,
2013-05-21 10:53:00,67.2,65.1,29.91,East,91,1.0,3.0,93,0.02,,---,0.24,VWS V14.01,2013-05-21 15:53:00,
2013-05-21 10:54:00,67.2,65.1,29.91,North,6,2.0,4.0,93,0.02,,---,0.24,VWS V14.01,2013-05-21 15:54:00,
2013-05-21 10:56:00,67.3,65.5,29.91,East,97,1.0,4.0,94,0.02,,---,0.24,VWS V14.01,2013-05-21 15:56:00,
2013-05-21 10:58:00,67.5,65.7,29.91,NE,45,2.0,4.0,94,0.02,,---,0.24,VWS V14.01,2013-05-21 15:58:00,
2013-05-21 10:59:00,67.6,65.8,29.91,ENE,66,2.0,6.0,94,0.02,,---,0.24,VWS V14.01,2013-05-21 15:59:00,
2013-05-21 11:01:00,67.6,65.5,29.91,East,89,3.0,4.0,93,0.01,,---,0.24,VWS V14.01,2013-05-21 16:01:00,
2013-05-21 11:03:00,67.6,65.5,29.91,East,80,1.0,4.0,93,0.01,,---,0.24,VWS V14.01,2013-05-21 16:03:00,
2013-05-21 11:04:00,67.7,65.6,29.91,East,89,5.0,5.0,93,0.01,,---,0.24,VWS V14.01,2013-05-21 16:04:00,
2013-05-21 11:06:00,67.7,65.3,29.91,ENE,70,1.0,5.0,92,0.01,,---,0.24,VWS V14.01,2013-05-21 16:06:00,
2013-05-21 11:08:00,67.9,65.5,29.91,East,79,1.0,5.0,92,0.01,,---,0.24,VWS V14.01,2013-05-21 16:08:00,
2013-05-21 11:09:00,67.9,65.8,29.91,NNE,19,2.0,5.0,93,0.01,,---,0.24,VWS V14.01,2013-05-21 16:09:00,
2013-05-21 11:10:00,67.9,65.8,29.91,East,82,2.0,5.0,93,0.01,,---,0.24,VWS V14.01,2013-05-21 16:10:00,
2013-05-21 11:11:00,67.9,65.5,29.90,ENE,66,2.0,5.0,92,0.01,,---,0.24,VWS V14.01,2013-05-21 16:11:00,
2013-05-21 11:13:00,68.2,66.1,29.90,NNE,13,2.0,5.0,93,0.01,,---,0.24,VWS V14.01,2013-05-21 16:13:00,
2013-05-21 11:15:00,68.4,66.3,29.90,ENE,72,2.0,5.0,93,0.01,,---,0.24,VWS V14.01,2013-05-21 16:15:00,
2013-05-21 11:16:00,68.4,66.0,29.90,ENE,73,1.0,1.0,92,0.00,,---,0.24,VWS V14.01,2013-05-21 16:16:00,
2013-05-21 11:18:00,68.6,66.2,29.91,ENE,59,1.0,4.0,92,0.00,,---,0.24,VWS V14.01,2013-05-21 16:18:00,
2013-05-21 11:20:00,68.8,66.4,29.90,ENE,59,0.0,4.0,92,0.00,,---,0.24,VWS V14.01,2013-05-21 16:20:00,
2013-05-21 11:21:00,68.9,66.8,29.90,ENE,57,1.0,4.0,93,0.00,,---,0.24,VWS V14.01,2013-05-21 16:21:00,
2013-05-21 11:22:00,69.0,66.6,29.90,SSW,206,1.0,4.0,92,0.01,,---,0.25,VWS V14.01,2013-05-21 16:22:00,
2013-05-21 11:23:00,69.1,66.7,29.90,SSW,206,0.0,4.0,92,0.03,,---,0.27,VWS V14.01,2013-05-21 16:23:00,
2013-05-21 11:25:00,69.4,67.3,29.90,SSW,206,0.0,4.0,93,0.03,,---,0.27,VWS V14.01,2013-05-21 16:25:00,
2013-05-21 11:26:00,69.5,67.4,29.90,East,94,2.0,4.0,93,0.03,,---,0.27,VWS V14.01,2013-05-21 16:26:00,
2013-05-21 11:27:00,69.6,67.5,29.90,East,94,1.0,4.0,93,0.03,,---,0.27,VWS V14.01,2013-05-21 16:27:00,
2013-05-21 11:28:00,69.6,67.2,29.90,East,94,0.0,4.0,92,0.03,,---,0.27,VWS V14.01,2013-05-21 16:28:00,
2013-05-21 11:30:00,69.7,67.3,29.90,East,94,0.0,4.0,92,0.03,,---,0.27,VWS V14.01,2013-05-21 16:30:00,
2013-05-21 11:31:00,69.7,67.3,29.90,East,94,0.0,0.0,92,0.03,,---,0.27,VWS V14.01,2013-05-21 16:31:00,
2013-05-21 11:32:00,69.8,67.4,29.90,East,94,0.0,1.0,92,0.03,,---,0.27,VWS V14.01,2013-05-21 16:32:00,
2013-05-21 11:33:00,69.8,67.4,29.90,East,97,1.0,1.0,92,0.03,,---,0.27,VWS V14.01,2013-05-21 16:33:00,
2013-05-21 11:35:00,69.7,67.0,29.90,NE,52,2.0,3.0,91,0.03,,---,0.27,VWS V14.01,2013-05-21 16:35:00,
2013-05-21 11:37:00,69.7,67.0,29.90,East,80,4.0,4.0,91,0.03,,---,0.27,VWS V14.01,2013-05-21 16:37:00,
2013-05-21 11:39:00,69.7,67.0,29.90,ENE,67,1.0,4.0,91,0.03,,---,0.27,VWS V14.01,2013-05-21 16:39:00,
2013-05-21 11:40:00,69.8,67.7,29.90,NW,326,0.0,4.0,93,0.03,,---,0.27,VWS V14.01,2013-05-21 16:40:00,
2013-05-21 11:42:00,70.0,67.6,29.90,East,87,2.0,4.0,92,0.03,,---,0.27,VWS V14.01,2013-05-21 16:42:00,
2013-05-21 11:44:00,70.1,67.7,29.90,North,6,2.0,4.0,92,0.03,,---,0.27,VWS V14.01,2013-05-21 16:44:00,
2013-05-21 11:45:00,70.2,67.4,29.89,ENE,77,2.0,5.0,91,0.03,,---,0.27,VWS V14.01,2013-05-21 16:45:00,
2013-05-21 11:47:00,70.3,67.9,29.89,NW,312,1.0,2.0,92,0.03,,---,0.27,VWS V14.01,2013-05-21 16:47:00,
2013-05-21 11:48:00,70.5,68.1,29.90,ESE,103,1.0,2.0,92,0.03,,---,0.27,VWS V14.01,2013-05-21 16:48:00,
2013-05-21 11:49:00,70.6,67.8,29.90,East,86,1.0,3.0,91,0.03,,---,0.27,VWS V14.01,2013-05-21 16:49:00,
2013-05-21 11:50:00,70.8,68.4,29.90,East,86,0.0,3.0,92,0.03,,---,0.27,VWS V14.01,2013-05-21 16:50:00,
2013-05-21 11:51:00,70.9,68.5,29.90,East,86,0.0,3.0,92,0.03,,---,0.27,VWS V14.01,2013-05-21 16:51:00,
2013-05-21 11:52:00,71.1,68.7,29.90,East,85,0.0,3.0,92,0.03,,---,0.27,VWS V14.01,2013-05-21 16:52:00,
2013-05-21 11:53:00,71.2,68.8,29.90,East,86,0.0,3.0,92,0.03,,---,0.27,VWS V14.01,2013-05-21 16:53:00,
2013-05-21 11:54:00,71.5,69.1,29.90,East,86,0.0,3.0,92,0.03,,---,0.27,VWS V14.01,2013-05-21 16:54:00,
2013-05-21 11:55:00,71.7,69.3,29.90,East,86,0.0,3.0,92,0.03,,---,0.27,VWS V14.01,2013-05-21 16:55:00,
2013-05-21 11:56:00,71.8,69.3,29.90,East,86,0.0,3.0,92,0.03,,---,0.27,VWS V14.01,2013-05-21 16:56:00,
2013-05-21 11:57:00,71.9,69.4,29.90,East,86,0.0,3.0,92,0.03,,---,0.27,VWS V14.01,2013-05-21 16:57:00,
2013-05-21 11:58:00,72.1,69.3,29.90,East,86,0.0,3.0,91,0.03,,---,0.27,VWS V14.01,2013-05-21 16:58:00,
2013-05-21 11:59:00,72.4,69.6,29.90,East,82,0.0,3.0,91,0.03,,---,0.27,VWS V14.01,2013-05-21 16:59:00,
2013-05-21 12:00:00,72.6,70.2,29.89,North,11,1.0,3.0,92,0.03,,---,0.27,VWS V14.01,2013-05-21 17:00:00,
2013-05-21 12:01:00,72.7,70.2,29.89,NNE,13,2.0,2.0,92,0.03,,---,0.27,VWS V14.01,2013-05-21 17:01:00,
2013-05-21 12:02:00,72.9,70.1,29.89,North,354,1.0,2.0,91,0.03,,---,0.27,VWS V14.01,2013-05-21 17:02:00,
2013-05-21 12:03:00,73.1,70.0,29.89,North,352,0.0,2.0,90,0.03,,---,0.27,VWS V14.01,2013-05-21 17:03:00,
2013-05-21 12:04:00,73.1,69.7,29.89,West,261,1.0,2.0,89,0.03,,---,0.27,VWS V14.01,2013-05-21 17:04:00,
2013-05-21 12:05:00,73.2,69.8,29.89,West,262,1.0,2.0,89,0.03,,---,0.27,VWS V14.01,2013-05-21 17:05:00,
2013-05-21 12:06:00,73.2,69.8,29.89,West,280,1.0,2.0,89,0.03,,---,0.27,VWS V14.01,2013-05-21 17:06:00,
2013-05-21 12:07:00,73.2,69.8,29.89,West,280,1.0,2.0,89,0.03,,---,0.27,VWS V14.01,2013-05-21 17:07:00,
2013-05-21 12:09:00,73.2,69.4,29.89,North,352,1.0,2.0,88,0.03,,---,0.27,VWS V14.01,2013-05-21 17:09:00,
2013-05-21 12:10:00,73.2,69.4,29.89,North,352,0.0,2.0,88,0.03,,---,0.27,VWS V14.01,2013-05-21 17:10:00,
2013-05-21 12:11:00,73.2,69.4,29.89,North,352,0.0,2.0,88,0.03,,---,0.27,VWS V14.01,2013-05-21 17:11:00,
2013-05-21 12:12:00,73.2,69.4,29.89,North,352,0.0,2.0,88,0.03,,---,0.27,VWS V14.01,2013-05-21 17:12:00,
2013-05-21 12:14:00,73.2,69.4,29.89,North,352,0.0,2.0,88,0.03,,---,0.27,VWS V14.01,2013-05-21 17:14:00,
2013-05-21 12:15:00,73.3,69.9,29.89,North,352,0.0,2.0,89,0.03,,---,0.27,VWS V14.01,2013-05-21 17:15:00,
2013-05-21 12:16:00,73.3,69.9,29.89,North,352,0.0,0.0,89,0.03,,---,0.27,VWS V14.01,2013-05-21 17:16:00,
2013-05-21 12:17:00,73.3,69.5,29.89,ENE,77,1.0,3.0,88,0.03,,---,0.27,VWS V14.01,2013-05-21 17:17:00,
2013-05-21 12:19:00,73.3,69.5,29.88,ENE,75,0.0,3.0,88,0.03,,---,0.27,VWS V14.01,2013-05-21 17:19:00,
2013-05-21 12:20:00,73.4,69.6,29.88,ENE,72,0.0,3.0,88,0.03,,---,0.27,VWS V14.01,2013-05-21 17:20:00,
2013-05-21 12:21:00,73.4,70.0,29.88,ENE,70,0.0,3.0,89,0.03,,---,0.27,VWS V14.01,2013-05-21 17:21:00,
2013-05-21 12:22:00,73.3,69.5,29.88,ENE,77,1.0,3.0,88,0.03,,---,0.27,VWS V14.01,2013-05-21 17:22:00,
2013-05-21 12:24:00,73.3,69.5,29.88,ENE,76,0.0,3.0,88,0.03,,---,0.27,VWS V14.01,2013-05-21 17:24:00,
2013-05-21 12:25:00,73.3,69.9,29.88,ENE,77,0.0,3.0,89,0.03,,---,0.27,VWS V14.01,2013-05-21 17:25:00,
2013-05-21 12:26:00,73.3,69.9,29.88,ENE,76,1.0,3.0,89,0.03,,---,0.27,VWS V14.01,2013-05-21 17:26:00,
2013-05-21 12:28:00,73.5,70.1,29.89,ENE,77,0.0,3.0,89,0.03,,---,0.27,VWS V14.01,2013-05-21 17:28:00,
2013-05-21 12:29:00,73.6,70.2,29.89,ENE,77,0.0,3.0,89,0.03,,---,0.27,VWS V14.01,2013-05-21 17:29:00,
2013-05-21 12:30:00,73.7,70.3,29.88,ENE,77,2.0,3.0,89,0.03,,---,0.27,VWS V14.01,2013-05-21 17:30:00,
2013-05-21 12:31:00,73.6,70.2,29.88,ENE,77,2.0,2.0,89,0.00,,---,0.27,VWS V14.01,2013-05-21 17:31:00,
2013-05-21 12:33:00,73.6,70.2,29.88,NW,325,0.0,3.0,89,0.00,,---,0.27,VWS V14.01,2013-05-21 17:33:00,
2013-05-21 12:34:00,73.6,70.2,29.88,NW,325,0.0,3.0,89,0.00,,---,0.27,VWS V14.01,2013-05-21 17:34:00,
2013-05-21 12:36:00,73.5,69.7,29.88,ENE,70,2.0,3.0,88,0.00,,---,0.27,VWS V14.01,2013-05-21 17:36:00,
2013-05-21 12:38:00,73.4,69.6,29.88,ENE,72,1.0,4.0,88,0.00,,---,0.27,VWS V14.01,2013-05-21 17:38:00,
2013-05-21 12:39:00,73.4,69.6,29.88,ENE,72,0.0,4.0,88,0.00,,---,0.27,VWS V14.01,2013-05-21 17:39:00,
2013-05-21 12:41:00,73.5,70.1,29.88,ENE,72,0.0,4.0,89,0.01,,---,0.28,VWS V14.01,2013-05-21 17:41:00,
2013-05-21 12:43:00,73.6,70.2,29.88,ENE,72,0.0,4.0,89,0.02,,---,0.29,VWS V14.01,2013-05-21 17:43:00,
2013-05-21 12:44:00,73.7,70.3,29.88,ENE,70,1.0,4.0,89,0.02,,---,0.29,VWS V14.01,2013-05-21 17:44:00,
2013-05-21 12:46:00,73.7,70.3,29.87,ENE,76,3.0,3.0,89,0.02,,---,0.29,VWS V14.01,2013-05-21 17:46:00,
2013-05-21 12:48:00,73.8,71.0,29.87,East,96,2.0,3.0,91,0.02,,---,0.29,VWS V14.01,2013-05-21 17:48:00,
2013-05-21 12:49:00,73.8,71.0,29.88,East,97,0.0,3.0,91,0.02,,---,0.29,VWS V14.01,2013-05-21 17:49:00,
2013-05-21 12:51:00,74.0,71.5,29.88,East,97,0.0,3.0,92,0.02,,---,0.29,VWS V14.01,2013-05-21 17:51:00,
2013-05-21 12:53:00,74.2,71.4,29.88,East,96,0.0,3.0,91,0.02,,---,0.29,VWS V14.01,2013-05-21 17:53:00,
2013-05-21 12:54:00,74.2,71.1,29.88,East,96,0.0,3.0,90,0.02,,---,0.29,VWS V14.01,2013-05-21 17:54:00,
2013-05-21 12:56:00,74.2,71.1,29.88,East,96,0.0,3.0,90,0.02,,---,0.29,VWS V14.01,2013-05-21 17:56:00,
2013-05-21 12:59:00,74.2,70.8,29.87,East,96,0.0,3.0,89,0.02,,---,0.29,VWS V14.01,2013-05-21 17:59:00,
2013-05-21 13:01:00,74.1,70.0,29.87,ENE,65,0.0,0.0,87,0.02,,---,0.29,VWS V14.01,2013-05-21 18:01:00,
2013-05-21 13:04:00,74.0,70.2,29.87,WNW,285,0.0,1.0,88,0.02,,---,0.29,VWS V14.01,2013-05-21 18:04:00,
2013-05-21 13:05:00,74.1,70.3,29.88,WNW,285,0.0,1.0,88,0.02,,---,0.29,VWS V14.01,2013-05-21 18:05:00,
2013-05-21 13:06:00,74.1,70.7,29.88,WNW,284,0.0,1.0,89,0.02,,---,0.29,VWS V14.01,2013-05-21 18:06:00,
2013-05-21 13:09:00,74.1,70.7,29.87,WNW,285,0.0,1.0,89,0.02,,---,0.29,VWS V14.01,2013-05-21 18:09:00,
2013-05-21 13:10:00,74.1,70.7,29.87,WNW,284,0.0,1.0,89,0.02,,---,0.29,VWS V14.01,2013-05-21 18:10:00,
2013-05-21 13:11:00,74.2,70.8,29.87,WNW,285,0.0,1.0,89,0.02,,---,0.29,VWS V14.01,2013-05-21 18:11:00,
2013-05-21 13:14:00,74.2,70.8,29.87,WNW,285,0.0,1.0,89,0.02,,---,0.29,VWS V14.01,2013-05-21 18:14:00,
2013-05-21 13:15:00,74.1,70.7,29.87,WNW,284,0.0,1.0,89,0.02,,---,0.29,VWS V14.01,2013-05-21 18:15:00,
2013-05-21 13:16:00,74.1,70.7,29.87,WNW,285,0.0,0.0,89,0.02,,---,0.29,VWS V14.01,2013-05-21 18:16:00,
2013-05-21 13:19:00,74.0,70.9,29.87,WNW,284,0.0,1.0,90,0.02,,---,0.29,VWS V14.01,2013-05-21 18:19:00,
2013-05-21 13:20:00,74.0,70.9,29.86,WNW,284,0.0,1.0,90,0.02,,---,0.29,VWS V14.01,2013-05-21 18:20:00,
2013-05-21 13:21:00,74.0,70.9,29.86,WNW,285,0.0,1.0,90,0.02,,---,0.29,VWS V14.01,2013-05-21 18:21:00,
2013-05-21 13:22:00,74.0,70.9,29.86,WNW,285,0.0,1.0,90,0.02,,---,0.29,VWS V14.01,2013-05-21 18:22:00,
2013-05-21 13:24:00,73.9,70.8,29.86,WNW,285,0.0,1.0,90,0.02,,---,0.29,VWS V14.01,2013-05-21 18:24:00,
2013-05-21 13:25:00,73.9,70.8,29.87,WNW,284,0.0,1.0,90,0.02,,---,0.29,VWS V14.01,2013-05-21 18:25:00,
2013-05-21 13:26:00,73.9,70.8,29.87,NE,48,0.0,1.0,90,0.02,,---,0.29,VWS V14.01,2013-05-21 18:26:00,
2013-05-21 13:27:00,73.8,70.7,29.86,NE,48,0.0,1.0,90,0.02,,---,0.29,VWS V14.01,2013-05-21 18:27:00,
2013-05-21 13:30:00,73.6,70.5,29.86,NNW,340,0.0,2.0,90,0.02,,---,0.29,VWS V14.01,2013-05-21 18:30:00,
2013-05-21 13:32:00,73.4,70.3,29.86,NE,44,0.0,2.0,90,0.02,,---,0.29,VWS V14.01,2013-05-21 18:32:00,
2013-05-21 13:35:00,73.3,70.5,29.86,NE,43,0.0,2.0,91,0.02,,---,0.29,VWS V14.01,2013-05-21 18:35:00,
2013-05-21 13:37:00,73.3,70.5,29.85,NE,44,0.0,2.0,91,0.02,,---,0.29,VWS V14.01,2013-05-21 18:37:00,
2013-05-21 13:40:00,73.2,70.4,29.85,NE,48,0.0,3.0,91,0.02,,---,0.29,VWS V14.01,2013-05-21 18:40:00,
2013-05-21 13:41:00,73.2,70.4,29.85,NE,48,0.0,3.0,91,0.02,,---,0.29,VWS V14.01,2013-05-21 18:41:00,
2013-05-21 13:42:00,73.2,70.4,29.85,NW,315,0.0,3.0,91,0.02,,---,0.29,VWS V14.01,2013-05-21 18:42:00,
2013-05-21 13:45:00,73.3,70.8,29.85,NW,315,1.0,3.0,92,0.02,,---,0.29,VWS V14.01,2013-05-21 18:45:00,
2013-05-21 13:46:00,73.3,70.8,29.85,NW,316,1.0,2.0,92,0.00,,---,0.29,VWS V14.01,2013-05-21 18:46:00,
2013-05-21 13:47:00,73.3,70.8,29.85,NNE,27,0.0,2.0,92,0.00,,---,0.29,VWS V14.01,2013-05-21 18:47:00,
2013-05-21 13:51:00,73.3,70.8,29.86,WNW,302,0.0,2.0,92,0.01,,---,0.30,VWS V14.01,2013-05-21 18:51:00,
2013-05-21 13:52:00,73.3,70.8,29.86,WSW,257,0.0,2.0,92,0.02,,---,0.31,VWS V14.01,2013-05-21 18:52:00,
2013-05-21 13:56:00,73.2,70.7,29.85,East,86,2.0,4.0,92,0.05,,---,0.34,VWS V14.01,2013-05-21 18:56:00,
2013-05-21 13:57:00,73.1,71.0,29.85,ENE,65,2.0,5.0,93,0.08,,---,0.37,VWS V14.01,2013-05-21 18:57:00,
2013-05-21 14:01:00,72.7,70.6,29.85,North,359,2.0,4.0,93,0.15,,---,0.44,VWS V14.01,2013-05-21 19:01:00,
2013-05-21 14:02:00,72.6,70.5,29.85,NNW,337,0.0,4.0,93,0.15,,---,0.44,VWS V14.01,2013-05-21 19:02:00,
2013-05-21 14:03:00,72.6,70.8,29.85,NNW,337,1.0,4.0,94,0.15,,---,0.44,VWS V14.01,2013-05-21 19:03:00,
2013-05-21 14:06:00,72.3,70.5,29.84,North,354,0.0,4.0,94,0.15,,---,0.44,VWS V14.01,2013-05-21 19:06:00,
2013-05-21 14:07:00,72.3,70.5,29.84,NW,323,0.0,4.0,94,0.15,,---,0.44,VWS V14.01,2013-05-21 19:07:00,
2013-05-21 14:08:00,72.3,70.5,29.84,NW,324,1.0,4.0,94,0.15,,---,0.44,VWS V14.01,2013-05-21 19:08:00,
2013-05-21 14:11:00,72.3,70.8,29.84,NW,324,0.0,4.0,95,0.15,,---,0.44,VWS V14.01,2013-05-21 19:11:00,
2013-05-21 14:12:00,72.4,70.9,29.84,NW,323,0.0,4.0,95,0.15,,---,0.44,VWS V14.01,2013-05-21 19:12:00,
2013-05-21 14:14:00,72.3,70.8,29.84,NW,323,0.0,4.0,95,0.15,,---,0.44,VWS V14.01,2013-05-21 19:14:00,
2013-05-21 14:16:00,72.3,70.8,29.84,West,274,1.0,1.0,95,0.15,,---,0.44,VWS V14.01,2013-05-21 19:16:00,
2013-05-21 14:17:00,72.3,70.8,29.84,West,276,1.0,1.0,95,0.15,,---,0.44,VWS V14.01,2013-05-21 19:17:00,
2013-05-21 14:18:00,72.3,70.8,29.84,West,276,1.0,1.0,95,0.15,,---,0.44,VWS V14.01,2013-05-21 19:18:00,
2013-05-21 14:19:00,72.3,70.8,29.84,NNW,340,1.0,2.0,95,0.15,,---,0.44,VWS V14.01,2013-05-21 19:19:00,
2013-05-21 14:21:00,72.2,70.7,29.84,NNW,336,0.0,4.0,95,0.15,,---,0.44,VWS V14.01,2013-05-21 19:21:00,
2013-05-21 14:22:00,72.2,70.7,29.84,NNW,336,0.0,4.0,95,0.15,,---,0.44,VWS V14.01,2013-05-21 19:22:00,
2013-05-21 14:23:00,72.2,70.7,29.84,NNW,337,0.0,4.0,95,0.15,,---,0.44,VWS V14.01,2013-05-21 19:23:00,
2013-05-21 14:24:00,72.2,70.7,29.84,NNW,337,0.0,4.0,95,0.15,,---,0.44,VWS V14.01,2013-05-21 19:24:00,
2013-05-21 14:26:00,72.2,71.0,29.84,NNE,25,0.0,4.0,96,0.17,,---,0.46,VWS V14.01,2013-05-21 19:26:00,
2013-05-21 14:27:00,72.3,71.1,29.84,NNE,25,0.0,4.0,96,0.18,,---,0.47,VWS V14.01,2013-05-21 19:27:00,
2013-05-21 14:28:00,72.3,71.1,29.84,NNE,25,0.0,4.0,96,0.19,,---,0.48,VWS V14.01,2013-05-21 19:28:00,
2013-05-21 14:29:00,72.3,71.1,29.84,NNE,21,0.0,4.0,96,0.19,,---,0.48,VWS V14.01,2013-05-21 19:29:00,
2013-05-21 14:31:00,72.2,70.7,29.83,North,359,1.0,1.0,95,0.21,,---,0.50,VWS V14.01,2013-05-21 19:31:00,
2013-05-21 14:33:00,72.2,70.7,29.83,North,359,1.0,1.0,95,0.22,,---,0.51,VWS V14.01,2013-05-21 19:33:00,
2013-05-21 14:34:00,72.1,70.6,29.83,NE,55,1.0,1.0,95,0.22,,---,0.51,VWS V14.01,2013-05-21 19:34:00,
2013-05-21 14:37:00,72.0,70.8,29.83,ENE,65,2.0,4.0,96,0.22,,---,0.51,VWS V14.01,2013-05-21 19:37:00,
2013-05-21 14:38:00,72.0,70.8,29.82,ENE,65,0.0,4.0,96,0.22,,---,0.51,VWS V14.01,2013-05-21 19:38:00,
2013-05-21 14:39:00,72.0,71.0,29.82,ENE,66,0.0,4.0,96,0.22,,,0.51,weatherlink.com 1.10,2013-05-21 19:39:00,
2013-05-21 14:42:00,72.0,70.8,29.82,ENE,59,0.0,4.0,96,0.22,,---,0.51,VWS V14.01,2013-05-21 19:42:00,
2013-05-21 14:43:00,72.1,70.9,29.82,ENE,59,0.0,4.0,96,0.22,,---,0.51,VWS V14.01,2013-05-21 19:43:00,
2013-05-21 14:44:00,72.1,70.9,29.82,ENE,59,0.0,4.0,96,0.22,,---,0.51,VWS V14.01,2013-05-21 19:44:00,
2013-05-21 14:47:00,72.2,71.0,29.82,ENE,59,0.0,0.0,96,0.22,,---,0.51,VWS V14.01,2013-05-21 19:47:00,
2013-05-21 14:48:00,72.3,71.4,29.82,ENE,59,0.0,0.0,97,0.22,,---,0.51,VWS V14.01,2013-05-21 19:48:00,
2013-05-21 14:49:00,72.3,71.4,29.82,ENE,59,0.0,1.0,97,0.22,,---,0.51,VWS V14.01,2013-05-21 19:49:00,
2013-05-21 14:52:00,72.4,71.5,29.82,ENE,75,2.0,3.0,97,0.22,,---,0.51,VWS V14.01,2013-05-21 19:52:00,
2013-05-21 14:53:00,72.4,71.2,29.82,East,89,3.0,3.0,96,0.22,,---,0.51,VWS V14.01,2013-05-21 19:53:00,
2013-05-21 14:54:00,72.3,71.1,29.81,East,91,0.0,3.0,96,0.22,,---,0.51,VWS V14.01,2013-05-21 19:54:00,
2013-05-21 14:57:00,72.4,71.5,29.81,East,96,0.0,3.0,97,0.22,,---,0.51,VWS V14.01,2013-05-21 19:57:00,
2013-05-21 14:58:00,72.4,71.5,29.81,NW,324,1.0,3.0,97,0.22,,---,0.51,VWS V14.01,2013-05-21 19:58:00,
2013-05-21 14:59:00,72.4,71.5,29.81,East,89,1.0,4.0,97,0.22,,---,0.51,VWS V14.01,2013-05-21 19:59:00,
2013-05-21 15:02:00,72.5,71.6,29.80,North,356,0.0,1.0,97,0.07,,---,0.51,VWS V14.01,2013-05-21 20:02:00,
2013-05-21 15:03:00,72.6,71.7,29.80,North,356,0.0,1.0,97,0.07,,---,0.51,VWS V14.01,2013-05-21 20:03:00,
2013-05-21 15:04:00,72.6,71.7,29.80,North,356,0.0,1.0,97,0.07,,---,0.51,VWS V14.01,2013-05-21 20:04:00,
2013-05-21 15:08:00,72.7,71.8,29.80,West,278,0.0,1.0,97,0.07,,---,0.51,VWS V14.01,2013-05-21 20:08:00,
2013-05-21 15:09:00,72.8,71.9,29.80,West,278,0.0,1.0,97,0.07,,---,0.51,VWS V14.01,2013-05-21 20:09:00,
2013-05-21 15:13:00,72.9,72.0,29.79,WNW,299,1.0,2.0,97,0.09,,---,0.53,VWS V14.01,2013-05-21 20:13:00,
2013-05-21 15:14:00,72.9,72.0,29.79,WNW,300,1.0,2.0,97,0.09,,---,0.53,VWS V14.01,2013-05-21 20:14:00,
2013-05-21 15:18:00,72.9,72.0,29.78,East,80,2.0,4.0,97,0.11,,---,0.55,VWS V14.01,2013-05-21 20:18:00,
2013-05-21 15:19:00,72.8,71.9,29.79,ENE,73,1.0,4.0,97,0.11,,---,0.55,VWS V14.01,2013-05-21 20:19:00,
2013-05-21 15:23:00,72.8,71.9,29.78,ENE,77,1.0,4.0,97,0.12,,---,0.56,VWS V14.01,2013-05-21 20:23:00,
2013-05-21 15:24:00,72.8,71.9,29.78,East,82,2.0,7.0,97,0.12,,---,0.56,VWS V14.01,2013-05-21 20:24:00,
2013-05-21 15:25:00,72.8,71.9,29.78,East,84,1.0,7.0,97,0.12,,---,0.56,VWS V14.01,2013-05-21 20:25:00,
2013-05-21 15:28:00,72.8,71.9,29.78,ENE,63,1.0,7.0,97,0.13,,---,0.57,VWS V14.01,2013-05-21 20:28:00,
2013-05-21 15:29:00,72.8,71.9,29.78,ENE,62,0.0,7.0,97,0.14,,---,0.58,VWS V14.01,2013-05-21 20:29:00,
2013-05-21 15:30:00,72.9,72.0,29.78,ENE,62,1.0,7.0,97,0.14,,---,0.58,VWS V14.01,2013-05-21 20:30:00,
2013-05-21 15:34:00,72.9,72.0,29.77,ENE,60,0.0,4.0,97,0.11,,---,0.61,VWS V14.01,2013-05-21 20:34:00,
2013-05-21 15:35:00,72.9,72.0,29.77,ENE,60,0.0,4.0,97,0.11,,---,0.61,VWS V14.01,2013-05-21 20:35:00,
2013-05-21 15:39:00,73.0,72.1,29.77,WNW,282,1.0,4.0,97,0.11,,---,0.61,VWS V14.01,2013-05-21 20:39:00,
2013-05-21 15:40:00,73.1,72.2,29.76,West,281,0.0,4.0,97,0.11,,---,0.61,VWS V14.01,2013-05-21 20:40:00,
2013-05-21 15:41:00,73.1,72.5,29.76,WNW,282,0.0,4.0,98,0.11,,---,0.61,VWS V14.01,2013-05-21 20:41:00,
2013-05-21 15:44:00,73.3,72.7,29.77,West,281,0.0,4.0,98,0.11,,---,0.61,VWS V14.01,2013-05-21 20:44:00,
2013-05-21 15:45:00,73.3,72.7,29.77,West,281,0.0,4.0,98,0.11,,---,0.61,VWS V14.01,2013-05-21 20:45:00,
2013-05-21 15:46:00,73.3,72.7,29.77,West,281,0.0,0.0,98,0.10,,---,0.61,VWS V14.01,2013-05-21 20:46:00,
2013-05-21 15:49:00,73.3,72.4,29.77,WNW,282,3.0,3.0,97,0.11,,---,0.62,VWS V14.01,2013-05-21 20:49:00,
2013-05-21 15:50:00,73.3,72.4,29.77,WNW,286,5.0,5.0,97,0.11,,---,0.62,VWS V14.01,2013-05-21 20:50:00,
2013-05-21 15:51:00,73.3,72.4,29.77,West,273,4.0,5.0,97,0.12,,---,0.63,VWS V14.01,2013-05-21 20:51:00,
2013-05-21 15:54:00,73.3,72.4,29.77,WNW,295,1.0,8.0,97,0.12,,---,0.63,VWS V14.01,2013-05-21 20:54:00,
2013-05-21 15:55:00,73.2,72.3,29.77,WNW,295,0.0,8.0,97,0.12,,---,0.63,VWS V14.01,2013-05-21 20:55:00,
2013-05-21 15:56:00,73.2,72.3,29.77,WNW,295,0.0,8.0,97,0.12,,---,0.63,VWS V14.01,2013-05-21 20:56:00,
2013-05-21 15:59:00,73.2,72.3,29.76,North,3,2.0,8.0,97,0.12,,---,0.63,VWS V14.01,2013-05-21 20:59:00,
2013-05-21 16:00:00,73.1,72.2,29.76,North,1,0.0,8.0,97,0.12,,---,0.63,VWS V14.01,2013-05-21 21:00:00,
2013-05-21 16:01:00,73.1,72.2,29.76,North,1,0.0,0.0,97,0.12,,---,0.63,VWS V14.01,2013-05-21 21:01:00,
2013-05-21 16:04:00,73.1,72.2,29.76,North,360,0.0,1.0,97,0.12,,---,0.63,VWS V14.01,2013-05-21 21:04:00,
2013-05-21 16:05:00,73.1,72.2,29.76,North,360,0.0,1.0,97,0.12,,---,0.63,VWS V14.01,2013-05-21 21:05:00,
2013-05-21 16:06:00,73.1,72.2,29.76,North,360,0.0,1.0,97,0.12,,---,0.63,VWS V14.01,2013-05-21 21:06:00,
2013-05-21 16:07:00,73.1,72.2,29.76,North,360,0.0,1.0,97,0.12,,---,0.63,VWS V14.01,2013-05-21 21:07:00,
2013-05-21 16:10:00,73.1,72.2,29.76,North,1,0.0,1.0,97,0.12,,---,0.63,VWS V14.01,2013-05-21 21:10:00,
2013-05-21 16:11:00,73.1,72.2,29.76,North,360,0.0,1.0,97,0.12,,---,0.63,VWS V14.01,2013-05-21 21:11:00,
2013-05-21 16:12:00,73.1,72.2,29.76,North,360,0.0,1.0,97,0.12,,---,0.63,VWS V14.01,2013-05-21 21:12:00,
2013-05-21 16:15:00,73.1,72.2,29.75,North,360,1.0,1.0,97,0.12,,---,0.63,VWS V14.01,2013-05-21 21:15:00,
2013-05-21 16:16:00,73.1,72.2,29.75,North,9,1.0,1.0,97,0.09,,---,0.63,VWS V14.01,2013-05-21 21:16:00,
2013-05-21 16:17:00,73.1,72.2,29.75,North,8,0.0,1.0,97,0.09,,---,0.63,VWS V14.01,2013-05-21 21:17:00,
2013-05-21 16:20:00,73.1,72.2,29.77,West,262,0.0,2.0,97,0.09,,---,0.63,VWS V14.01,2013-05-21 21:20:00,
2013-05-21 16:21:00,73.1,72.2,29.76,West,262,1.0,2.0,97,0.10,,---,0.64,VWS V14.01,2013-05-21 21:21:00,
2013-05-21 16:22:00,73.1,72.2,29.76,West,262,0.0,2.0,97,0.11,,---,0.65,VWS V14.01,2013-05-21 21:22:00,
2013-05-21 16:25:00,73.1,72.2,29.75,NW,323,1.0,5.0,97,0.13,,---,0.67,VWS V14.01,2013-05-21 21:25:00,
2013-05-21 16:26:00,73.1,72.2,29.75,West,276,2.0,5.0,97,0.13,,---,0.67,VWS V14.01,2013-05-21 21:26:00,
2013-05-21 16:27:00,73.1,72.2,29.75,WNW,285,1.0,5.0,97,0.13,,---,0.67,VWS V14.01,2013-05-21 21:27:00,
2013-05-21 16:30:00,72.7,71.5,29.74,NNE,29,3.0,5.0,96,0.17,,---,0.71,VWS V14.01,2013-05-21 21:30:00,
2013-05-21 16:31:00,72.5,71.3,29.74,NNE,15,7.0,7.0,96,0.12,,---,0.72,VWS V14.01,2013-05-21 21:31:00,
2013-05-21 16:32:00,72.2,70.7,29.73,North,1,0.0,7.0,95,0.12,,---,0.72,VWS V14.01,2013-05-21 21:32:00,
2013-05-21 16:35:00,71.9,70.7,29.74,WSW,240,1.0,7.0,96,0.12,,---,0.72,VWS V14.01,2013-05-21 21:35:00,
2013-05-21 16:36:00,71.9,70.7,29.74,SW,217,2.0,7.0,96,0.12,,---,0.72,VWS V14.01,2013-05-21 21:36:00,
2013-05-21 16:37:00,71.7,70.5,29.75,SW,235,0.0,7.0,96,0.12,,---,0.72,VWS V14.01,2013-05-21 21:37:00,
2013-05-21 16:40:00,71.5,70.3,29.75,West,264,1.0,7.0,96,0.12,,---,0.72,VWS V14.01,2013-05-21 21:40:00,
2013-05-21 16:41:00,71.4,70.2,29.75,West,264,1.0,7.0,96,0.12,,---,0.72,VWS V14.01,2013-05-21 21:41:00,
2013-05-21 16:42:00,71.3,70.1,29.75,West,264,0.0,7.0,96,0.12,,---,0.72,VWS V14.01,2013-05-21 21:42:00,
2013-05-21 16:45:00,71.1,69.9,29.75,West,266,1.0,7.0,96,0.16,,---,0.76,VWS V14.01,2013-05-21 21:45:00,
2013-05-21 16:46:00,71.1,69.9,29.74,West,266,1.0,1.0,96,0.16,,---,0.77,VWS V14.01,2013-05-21 21:46:00,
2013-05-21 16:47:00,71.0,69.5,29.74,West,281,1.0,2.0,95,0.17,,---,0.78,VWS V14.01,2013-05-21 21:47:00,
2013-05-21 16:50:00,70.7,69.5,29.75,West,281,0.0,2.0,96,0.18,,---,0.79,VWS V14.01,2013-05-21 21:50:00,
2013-05-21 16:51:00,70.7,69.5,29.75,West,281,1.0,2.0,96,0.18,,---,0.79,VWS V14.01,2013-05-21 21:51:00,
2013-05-21 16:52:00,70.6,69.4,29.76,West,281,0.0,2.0,96,0.18,,---,0.79,VWS V14.01,2013-05-21 21:52:00,
2013-05-21 16:53:00,70.7,69.5,29.76,West,281,1.0,2.0,96,0.18,,---,0.79,VWS V14.01,2013-05-21 21:53:00,
2013-05-21 16:55:00,70.6,69.4,29.76,North,354,0.0,2.0,96,0.18,,---,0.79,VWS V14.01,2013-05-21 21:55:00,
2013-05-21 16:56:00,70.6,69.4,29.76,North,354,0.0,2.0,96,0.19,,---,0.80,VWS V14.01,2013-05-21 21:56:00,
2013-05-21 16:57:00,70.6,69.4,29.77,WNW,300,0.0,2.0,96,0.20,,---,0.81,VWS V14.01,2013-05-21 21:57:00,
2013-05-21 16:58:00,70.6,69.4,29.77,WNW,300,0.0,2.0,96,0.20,,---,0.81,VWS V14.01,2013-05-21 21:58:00,
2013-05-21 17:01:00,70.7,69.8,29.77,NNE,21,0.0,0.0,97,0.22,,---,0.85,VWS V14.01,2013-05-21 22:01:00,
2013-05-21 17:03:00,70.8,69.9,29.78,NE,42,2.0,5.0,97,0.29,,---,0.92,VWS V14.01,2013-05-21 22:03:00,
2013-05-21 17:04:00,70.8,69.9,29.78,North,2,1.0,5.0,97,0.32,,---,0.95,VWS V14.01,2013-05-21 22:04:00,
2013-05-21 17:06:00,71.0,70.1,29.78,ENE,65,5.0,6.0,97,0.48,,---,1.11,VWS V14.01,2013-05-21 22:06:00,
2013-05-21 17:08:00,71.2,70.6,29.76,NNW,340,2.0,6.0,98,0.56,,---,1.19,VWS V14.01,2013-05-21 22:08:00,
2013-05-21 17:09:00,71.1,70.5,29.77,North,359,3.0,6.0,98,0.61,,---,1.24,VWS V14.01,2013-05-21 22:09:00,
2013-05-21 17:11:00,70.9,70.0,29.79,NW,325,0.0,6.0,97,0.67,,---,1.30,VWS V14.01,2013-05-21 22:11:00,
2013-05-21 17:12:00,70.9,70.0,29.79,NW,325,0.0,6.0,97,0.67,,---,1.30,VWS V14.01,2013-05-21 22:12:00,
2013-05-21 17:13:00,70.7,69.5,29.79,North,356,3.0,6.0,96,0.68,,---,1.31,VWS V14.01,2013-05-21 22:13:00,
2013-05-21 17:14:00,70.5,69.3,29.79,NE,38,4.0,6.0,96,0.71,,---,1.34,VWS V14.01,2013-05-21 22:14:00,
2013-05-21 17:16:00,69.7,68.2,29.78,ENE,63,4.0,4.0,95,0.80,,---,1.43,VWS V14.01,2013-05-21 22:16:00,
2013-05-21 17:17:00,69.6,68.1,29.77,NE,44,3.0,5.0,95,0.81,,---,1.44,VWS V14.01,2013-05-21 22:17:00,
2013-05-21 17:18:00,69.2,67.7,29.77,NE,44,4.0,6.0,95,0.84,,---,1.47,VWS V14.01,2013-05-21 22:18:00,
2013-05-21 17:19:00,69.0,67.5,29.76,North,352,2.0,7.0,95,0.86,,---,1.49,VWS V14.01,2013-05-21 22:19:00,
2013-05-21 17:21:00,68.6,67.1,29.75,NNW,330,1.0,7.0,95,0.87,,---,1.50,VWS V14.01,2013-05-21 22:21:00,
2013-05-21 17:22:00,68.5,67.3,29.75,SW,235,2.0,7.0,96,0.87,,---,1.50,VWS V14.01,2013-05-21 22:22:00,
2013-05-21 17:23:00,68.4,67.2,29.77,NW,304,0.0,7.0,96,0.87,,---,1.50,VWS V14.01,2013-05-21 22:23:00,
2013-05-21 17:24:00,68.3,67.1,29.78,West,271,11.0,12.0,96,0.89,,---,1.52,VWS V14.01,2013-05-21 22:24:00,
2013-05-21 17:26:00,68.1,66.9,29.81,WNW,290,9.0,16.0,96,0.93,,---,1.56,VWS V14.01,2013-05-21 22:26:00,
2013-05-21 17:27:00,68.1,66.9,29.81,WNW,290,6.0,16.0,96,0.95,,---,1.58,VWS V14.01,2013-05-21 22:27:00,
2013-05-21 17:28:00,68.1,67.2,29.81,SW,236,2.0,16.0,97,0.97,,---,1.60,VWS V14.01,2013-05-21 22:28:00,
2013-05-21 17:30:00,68.0,67.1,29.79,NNW,330,1.0,16.0,97,1.04,,---,1.67,VWS V14.01,2013-05-21 22:30:00,
2013-05-21 17:32:00,67.9,67.0,29.78,NE,35,3.0,6.0,97,1.09,,---,1.80,VWS V14.01,2013-05-21 22:32:00,
2013-05-21 17:33:00,67.8,66.9,29.79,North,350,1.0,6.0,97,1.16,,---,1.87,VWS V14.01,2013-05-21 22:33:00,
2013-05-21 17:34:00,67.8,66.9,29.80,NNW,343,0.0,6.0,97,1.21,,---,1.92,VWS V14.01,2013-05-21 22:34:00,
2013-05-21 17:35:00,67.7,66.8,29.80,NW,313,1.0,6.0,97,1.25,,---,1.96,VWS V14.01,2013-05-21 22:35:00,
2013-05-21 17:37:00,67.7,66.8,29.81,NW,321,1.0,6.0,97,1.30,,---,2.01,VWS V14.01,2013-05-21 22:37:00,
2013-05-21 17:38:00,67.6,66.7,29.81,North,356,2.0,6.0,97,1.38,,---,2.09,VWS V14.01,2013-05-21 22:38:00,
2013-05-21 17:39:00,67.6,66.7,29.80,ENE,59,3.0,6.0,97,1.39,,---,2.10,VWS V14.01,2013-05-21 22:39:00,
2013-05-21 17:41:00,67.5,66.6,29.79,NNE,17,3.0,6.0,97,1.51,,---,2.22,VWS V14.01,2013-05-21 22:41:00,
2013-05-21 17:42:00,67.4,66.5,29.78,NNE,18,2.0,6.0,97,1.59,,---,2.30,VWS V14.01,2013-05-21 22:42:00,
2013-05-21 17:43:00,67.3,66.4,29.78,NW,326,1.0,6.0,97,1.73,,---,2.44,VWS V14.01,2013-05-21 22:43:00,
2013-05-21 17:44:00,67.3,66.4,29.78,NW,326,0.0,6.0,97,1.78,,---,2.49,VWS V14.01,2013-05-21 22:44:00,
2013-05-21 17:46:00,67.4,66.5,29.79,WNW,282,1.0,1.0,97,1.87,,---,2.63,VWS V14.01,2013-05-21 22:46:00,
2013-05-21 17:47:00,67.3,66.7,29.80,WNW,285,2.0,2.0,98,1.94,,---,2.70,VWS V14.01,2013-05-21 22:47:00,
2013-05-21 17:48:00,67.3,66.4,29.80,WNW,292,0.0,5.0,97,2.10,,---,2.86,VWS V14.01,2013-05-21 22:48:00,
2013-05-21 17:49:00,67.3,66.4,29.80,WNW,292,1.0,5.0,97,2.10,,---,2.86,VWS V14.01,2013-05-21 22:49:00,
2013-05-21 17:51:00,67.2,66.3,29.81,WNW,291,0.0,5.0,97,2.25,,---,3.01,VWS V14.01,2013-05-21 22:51:00,
2013-05-21 17:52:00,67.2,66.6,29.81,WNW,295,0.0,5.0,98,2.33,,---,3.09,VWS V14.01,2013-05-21 22:52:00,
2013-05-21 17:54:00,67.2,66.6,29.81,SW,233,0.0,5.0,98,2.41,,---,3.17,VWS V14.01,2013-05-21 22:54:00,
2013-05-21 17:56:00,67.2,66.6,29.82,West,261,0.0,5.0,98,2.43,,---,3.19,VWS V14.01,2013-05-21 22:56:00,
2013-05-21 17:57:00,67.2,66.6,29.83,West,261,0.0,5.0,98,2.45,,---,3.21,VWS V14.01,2013-05-21 22:57:00,
2013-05-21 17:59:00,67.3,66.7,29.84,West,271,0.0,5.0,98,2.46,,---,3.22,VWS V14.01,2013-05-21 22:59:00,
2013-05-21 18:01:00,67.3,66.7,29.84,WNW,283,1.0,1.0,98,2.38,,---,3.23,VWS V14.01,2013-05-21 23:01:00,
2013-05-21 18:02:00,67.4,66.8,29.84,WNW,283,0.0,1.0,98,2.39,,---,3.24,VWS V14.01,2013-05-21 23:02:00,
2013-05-21 18:04:00,67.3,66.7,29.84,West,266,1.0,2.0,98,2.40,,---,3.25,VWS V14.01,2013-05-21 23:04:00,
2013-05-21 18:06:00,67.3,66.7,29.84,West,266,1.0,2.0,98,2.42,,---,3.27,VWS V14.01,2013-05-21 23:06:00,
2013-05-21 18:07:00,67.3,66.7,29.84,West,266,0.0,2.0,98,2.43,,---,3.28,VWS V14.01,2013-05-21 23:07:00,
2013-05-21 18:09:00,67.3,66.7,29.83,West,266,0.0,2.0,98,2.47,,---,3.32,VWS V14.01,2013-05-21 23:09:00,
2013-05-21 18:10:00,67.3,66.7,29.83,West,266,0.0,2.0,98,2.48,,---,3.33,VWS V14.01,2013-05-21 23:10:00,
2013-05-21 18:11:00,67.3,66.7,29.82,West,266,0.0,2.0,98,2.52,,---,3.37,VWS V14.01,2013-05-21 23:11:00,
2013-05-21 18:12:00,67.3,66.7,29.82,West,266,1.0,2.0,98,2.53,,---,3.38,VWS V14.01,2013-05-21 23:12:00,
2013-05-21 18:14:00,67.2,66.6,29.82,WSW,258,0.0,2.0,98,2.58,,---,3.43,VWS V14.01,2013-05-21 23:14:00,
2013-05-21 18:15:00,67.2,66.6,29.82,WSW,257,0.0,2.0,98,2.59,,---,3.44,VWS V14.01,2013-05-21 23:15:00,
2013-05-21 18:16:00,67.3,66.7,29.82,WSW,257,0.0,0.0,98,2.04,,---,3.45,VWS V14.01,2013-05-21 23:16:00,
2013-05-21 18:17:00,67.3,66.7,29.81,WSW,257,0.0,0.0,98,2.04,,---,3.45,VWS V14.01,2013-05-21 23:17:00,
2013-05-21 18:19:00,67.2,66.6,29.81,WSW,257,0.0,0.0,98,2.05,,---,3.46,VWS V14.01,2013-05-21 23:19:00,
2013-05-21 18:20:00,67.2,66.6,29.81,WSW,257,0.0,0.0,98,2.05,,---,3.46,VWS V14.01,2013-05-21 23:20:00,
2013-05-21 18:22:00,67.2,66.6,29.81,WSW,257,0.0,1.0,98,2.06,,---,3.47,VWS V14.01,2013-05-21 23:22:00,
2013-05-21 18:23:00,67.2,66.6,29.81,WSW,257,0.0,1.0,98,2.06,,---,3.47,VWS V14.01,2013-05-21 23:23:00,
2013-05-21 18:24:00,67.2,66.6,29.81,WSW,257,0.0,1.0,98,2.07,,---,3.48,VWS V14.01,2013-05-21 23:24:00,
2013-05-21 18:25:00,67.2,66.6,29.81,WSW,257,0.0,1.0,98,2.07,,---,3.48,VWS V14.01,2013-05-21 23:25:00,
2013-05-21 18:27:00,67.2,66.6,29.81,WSW,257,0.0,1.0,98,2.09,,---,3.50,VWS V14.01,2013-05-21 23:27:00,
2013-05-21 18:28:00,67.1,66.5,29.81,WSW,257,0.0,1.0,98,2.10,,---,3.51,VWS V14.01,2013-05-21 23:28:00,
2013-05-21 18:30:00,67.1,66.5,29.81,WSW,257,0.0,1.0,98,2.10,,---,3.51,VWS V14.01,2013-05-21 23:30:00,
2013-05-21 18:32:00,67.1,66.5,29.81,WSW,257,0.0,0.0,98,1.79,,---,3.52,VWS V14.01,2013-05-21 23:32:00,
2013-05-21 18:33:00,67.1,66.5,29.81,WSW,257,0.0,0.0,98,1.79,,---,3.52,VWS V14.01,2013-05-21 23:33:00,
2013-05-21 18:35:00,67.2,66.6,29.80,WSW,257,0.0,0.0,98,1.80,,---,3.53,VWS V14.01,2013-05-21 23:35:00,
2013-05-21 18:37:00,67.2,66.6,29.80,ENE,77,1.0,3.0,98,1.80,,---,3.53,VWS V14.01,2013-05-21 23:37:00,
2013-05-21 18:38:00,67.2,66.6,29.80,NNW,343,0.0,3.0,98,1.80,,---,3.53,VWS V14.01,2013-05-21 23:38:00,
2013-05-21 18:40:00,67.2,66.6,29.80,NNW,343,0.0,3.0,98,1.80,,---,3.53,VWS V14.01,2013-05-21 23:40:00,
2013-05-21 18:41:00,67.2,66.6,29.80,NNW,343,1.0,3.0,98,1.80,,---,3.53,VWS V14.01,2013-05-21 23:41:00,
2013-05-21 18:42:00,67.2,66.6,29.80,NNW,342,1.0,3.0,98,1.81,,---,3.54,VWS V14.01,2013-05-21 23:42:00,
2013-05-21 18:43:00,67.2,66.6,29.81,West,276,1.0,3.0,98,1.81,,---,3.54,VWS V14.01,2013-05-21 23:43:00,
2013-05-21 18:45:00,67.2,66.6,29.81,West,276,1.0,3.0,98,1.81,,---,3.54,VWS V14.01,2013-05-21 23:45:00,
2013-05-21 18:46:00,67.2,66.6,29.81,West,276,0.0,0.0,98,0.91,,---,3.54,VWS V14.01,2013-05-21 23:46:00,
2013-05-21 18:47:00,67.2,66.6,29.81,West,276,0.0,1.0,98,0.91,,---,3.54,VWS V14.01,2013-05-21 23:47:00,
2013-05-21 18:49:00,67.2,66.6,29.81,West,276,0.0,1.0,98,0.91,,---,3.54,VWS V14.01,2013-05-21 23:49:00,
2013-05-21 18:50:00,67.2,66.6,29.81,West,276,0.0,1.0,98,0.92,,---,3.55,VWS V14.01,2013-05-21 23:50:00,
2013-05-21 18:51:00,67.2,66.6,29.81,WSW,256,2.0,3.0,98,0.92,,---,3.55,VWS V14.01,2013-05-21 23:51:00,
2013-05-21 18:52:00,67.3,66.7,29.81,WSW,242,1.0,3.0,98,0.92,,---,3.55,VWS V14.01,2013-05-21 23:52:00,
2013-05-21 18:54:00,67.2,66.6,29.81,WSW,242,0.0,3.0,98,0.92,,---,3.55,VWS V14.01,2013-05-21 23:54:00,
2013-05-21 18:55:00,67.2,66.6,29.81,WSW,242,0.0,3.0,98,0.93,,---,3.56,VWS V14.01,2013-05-21 23:55:00,
2013-05-21 18:56:00,67.2,66.6,29.80,WSW,242,0.0,3.0,98,0.93,,---,3.56,VWS V14.01,2013-05-21 23:56:00,
2013-05-21 18:58:00,67.3,67.0,29.80,WSW,243,0.0,3.0,99,0.93,,---,3.56,VWS V14.01,2013-05-21 23:58:00,
2013-05-21 18:59:00,67.3,67.0,29.80,WSW,241,1.0,3.0,99,0.93,,---,3.56,VWS V14.01,2013-05-21 23:59:00,
2013-05-21 19:00:00,67.3,67.0,29.79,WSW,242,1.0,3.0,99,0.93,,---,3.56,VWS V14.01,2013-05-22 00:00:00,
2013-05-21 19:01:00,67.3,67.0,29.79,WSW,242,1.0,1.0,99,0.33,,---,3.56,VWS V14.01,2013-05-22 00:01:00,
2013-05-21 19:03:00,67.2,66.9,29.79,WSW,242,0.0,1.0,99,0.34,,---,3.57,VWS V14.01,2013-05-22 00:03:00,
2013-05-21 19:04:00,67.3,67.0,29.79,WSW,242,0.0,1.0,99,0.34,,---,3.57,VWS V14.01,2013-05-22 00:04:00,
2013-05-21 19:05:00,67.3,67.0,29.80,WSW,243,0.0,1.0,99,0.34,,---,3.57,VWS V14.01,2013-05-22 00:05:00,
2013-05-21 19:06:00,67.3,67.0,29.80,WSW,242,0.0,1.0,99,0.34,,---,3.57,VWS V14.01,2013-05-22 00:06:00,
2013-05-21 19:08:00,67.3,67.0,29.80,WSW,243,0.0,1.0,99,0.34,,---,3.57,VWS V14.01,2013-05-22 00:08:00,
2013-05-21 19:09:00,67.3,67.0,29.80,WSW,242,0.0,1.0,99,0.34,,---,3.57,VWS V14.01,2013-05-22 00:09:00,
2013-05-21 19:10:00,67.4,67.1,29.81,WSW,242,0.0,1.0,99,0.34,,---,3.57,VWS V14.01,2013-05-22 00:10:00,
2013-05-21 19:11:00,67.4,67.1,29.81,WSW,242,0.0,1.0,99,0.34,,---,3.57,VWS V14.01,2013-05-22 00:11:00,
2013-05-21 19:13:00,67.4,67.1,29.81,WSW,238,0.0,1.0,99,0.35,,---,3.58,VWS V14.01,2013-05-22 00:13:00,
2013-05-21 19:14:00,67.4,67.1,29.82,WSW,243,1.0,4.0,99,0.35,,---,3.58,VWS V14.01,2013-05-22 00:14:00,
2013-05-21 19:16:00,67.4,67.1,29.82,WSW,243,0.0,0.0,99,0.14,,---,3.58,VWS V14.01,2013-05-22 00:16:00,
2013-05-21 19:18:00,67.4,67.1,29.81,WSW,254,1.0,1.0,99,0.14,,---,3.58,VWS V14.01,2013-05-22 00:18:00,
2013-05-21 19:19:00,67.5,67.2,29.81,WSW,253,1.0,1.0,99,0.14,,---,3.58,VWS V14.01,2013-05-22 00:19:00,
2013-05-21 19:21:00,67.5,67.2,29.81,SW,231,0.0,1.0,99,0.14,,---,3.58,VWS V14.01,2013-05-22 00:21:00,
2013-05-21 19:24:00,67.5,67.2,29.80,WNW,285,0.0,2.0,99,0.14,,---,3.58,VWS V14.01,2013-05-22 00:24:00,
2013-05-21 19:26:00,67.5,67.2,29.80,WNW,285,0.0,2.0,99,0.14,,---,3.58,VWS V14.01,2013-05-22 00:26:00,
2013-05-21 19:29:00,67.5,67.2,29.79,NW,326,0.0,2.0,99,0.15,,---,3.59,VWS V14.01,2013-05-22 00:29:00,
2013-05-21 19:31:00,67.5,67.2,29.79,NNW,327,0.0,0.0,99,0.07,,---,3.59,VWS V14.01,2013-05-22 00:31:00,
2013-05-21 19:32:00,67.5,67.2,29.78,NNW,327,0.0,0.0,99,0.07,,---,3.59,VWS V14.01,2013-05-22 00:32:00,
2013-05-21 19:34:00,67.5,67.2,29.78,NNW,327,0.0,0.0,99,0.07,,---,3.59,VWS V14.01,2013-05-22 00:34:00,
2013-05-21 19:35:00,67.5,67.2,29.78,NW,326,0.0,0.0,99,0.07,,---,3.59,VWS V14.01,2013-05-22 00:35:00,
2013-05-21 19:36:00,67.5,67.2,29.78,NW,326,0.0,0.0,99,0.07,,---,3.59,VWS V14.01,2013-05-22 00:36:00,
2013-05-21 19:37:00,67.5,67.2,29.78,NW,326,0.0,0.0,99,0.07,,---,3.59,VWS V14.01,2013-05-22 00:37:00,
2013-05-21 19:39:00,67.5,67.2,29.77,NW,326,0.0,0.0,99,0.08,,---,3.60,VWS V14.01,2013-05-22 00:39:00,
2013-05-21 19:40:00,67.5,67.2,29.77,NW,326,0.0,0.0,99,0.08,,---,3.60,VWS V14.01,2013-05-22 00:40:00,
2013-05-21 19:42:00,67.5,67.2,29.78,NW,326,0.0,0.0,99,0.08,,---,3.60,VWS V14.01,2013-05-22 00:42:00,
2013-05-21 19:45:00,67.5,67.2,29.77,NNW,327,0.0,0.0,99,0.08,,---,3.60,VWS V14.01,2013-05-22 00:45:00,
2013-05-21 19:47:00,67.5,67.2,29.77,NW,326,0.0,0.0,99,0.06,,---,3.60,VWS V14.01,2013-05-22 00:47:00,
2013-05-21 19:48:00,67.5,67.2,29.77,NW,326,0.0,0.0,99,0.06,,---,3.60,VWS V14.01,2013-05-22 00:48:00,
2013-05-21 19:50:00,67.5,67.2,29.77,NW,326,0.0,0.0,99,0.07,,---,3.61,VWS V14.01,2013-05-22 00:50:00,
2013-05-21 19:52:00,67.5,67.2,29.76,NW,326,0.0,0.0,99,0.07,,---,3.61,VWS V14.01,2013-05-22 00:52:00,
2013-05-21 19:53:00,67.5,67.2,29.76,NW,326,0.0,0.0,99,0.07,,---,3.61,VWS V14.01,2013-05-22 00:53:00,
2013-05-21 19:55:00,67.4,67.1,29.76,NW,326,0.0,1.0,99,0.08,,---,3.62,VWS V14.01,2013-05-22 00:55:00,
2013-05-21 19:57:00,67.5,67.2,29.76,WSW,254,0.0,1.0,99,0.09,,---,3.63,VWS V14.01,2013-05-22 00:57:00,
2013-05-21 19:58:00,67.5,67.2,29.76,WSW,254,0.0,1.0,99,0.09,,---,3.63,VWS V14.01,2013-05-22 00:58:00,
2013-05-21 20:00:00,67.5,67.2,29.76,WSW,254,0.0,1.0,99,0.09,,---,3.63,VWS V14.01,2013-05-22 01:00:00,
2013-05-21 20:03:00,67.5,67.2,29.76,WSW,250,0.0,2.0,99,0.07,,---,3.63,VWS V14.01,2013-05-22 01:03:00,
2013-05-21 20:05:00,67.4,67.1,29.76,WSW,250,1.0,2.0,99,0.07,,---,3.63,VWS V14.01,2013-05-22 01:05:00,
2013-05-21 20:08:00,67.4,67.1,29.77,North,8,1.0,2.0,99,0.07,,---,3.63,VWS V14.01,2013-05-22 01:08:00,
2013-05-21 20:10:00,67.4,67.1,29.76,NW,318,1.0,3.0,99,0.07,,---,3.63,VWS V14.01,2013-05-22 01:10:00,
2013-05-21 20:11:00,67.3,67.0,29.76,SW,231,2.0,3.0,99,0.07,,---,3.63,VWS V14.01,2013-05-22 01:11:00,
2013-05-21 20:13:00,67.3,67.0,29.77,WSW,237,0.0,3.0,99,0.07,,---,3.63,VWS V14.01,2013-05-22 01:13:00,
2013-05-21 20:14:00,67.3,67.0,29.77,NW,325,0.0,3.0,99,0.07,,---,3.63,VWS V14.01,2013-05-22 01:14:00,
2013-05-21 20:15:00,67.3,67.0,29.78,West,268,1.0,3.0,99,0.07,,---,3.63,VWS V14.01,2013-05-22 01:15:00,
2013-05-21 20:16:00,67.3,67.0,29.78,West,269,1.0,1.0,99,0.05,,---,3.63,VWS V14.01,2013-05-22 01:16:00,
2013-05-21 20:18:00,67.4,67.1,29.79,West,269,0.0,1.0,99,0.05,,---,3.63,VWS V14.01,2013-05-22 01:18:00,
2013-05-21 20:19:00,67.4,67.1,29.79,West,266,0.0,1.0,99,0.05,,---,3.63,VWS V14.01,2013-05-22 01:19:00,
2013-05-21 20:21:00,67.4,67.1,29.79,NNW,339,0.0,2.0,99,0.05,,---,3.63,VWS V14.01,2013-05-22 01:21:00,
2013-05-21 20:23:00,67.3,67.0,29.79,NNW,339,0.0,2.0,99,0.06,,---,3.64,VWS V14.01,2013-05-22 01:23:00,
2013-05-21 20:24:00,67.4,67.0,29.79,NNW,337,0.0,2.0,99,0.06,,,3.64,weatherlink.com 1.10,2013-05-22 01:24:00,
2013-05-21 20:26:00,67.4,67.1,29.79,NNW,340,0.0,2.0,99,0.06,,---,3.64,VWS V14.01,2013-05-22 01:26:00,
2013-05-21 20:27:00,67.4,67.1,29.78,NW,304,1.0,2.0,99,0.06,,---,3.64,VWS V14.01,2013-05-22 01:27:00,
2013-05-21 20:28:00,67.3,67.0,29.78,NW,304,0.0,2.0,99,0.06,,---,3.64,VWS V14.01,2013-05-22 01:28:00,
2013-05-21 20:29:00,67.3,67.0,29.78,WNW,302,0.0,2.0,99,0.06,,---,3.64,VWS V14.01,2013-05-22 01:29:00,
2013-05-21 20:31:00,67.4,67.1,29.78,NW,304,1.0,1.0,99,0.05,,---,3.64,VWS V14.01,2013-05-22 01:31:00,
2013-05-21 20:32:00,67.4,67.1,29.78,NW,304,0.0,1.0,99,0.05,,---,3.64,VWS V14.01,2013-05-22 01:32:00,
2013-05-21 20:34:00,67.3,67.0,29.77,NW,309,1.0,1.0,99,0.05,,---,3.64,VWS V14.01,2013-05-22 01:34:00,
2013-05-21 20:35:00,67.3,67.0,29.77,NW,308,1.0,2.0,99,0.05,,---,3.64,VWS V14.01,2013-05-22 01:35:00,
2013-05-21 20:37:00,67.3,67.0,29.78,NW,308,0.0,2.0,99,0.05,,---,3.64,VWS V14.01,2013-05-22 01:37:00,
2013-05-21 20:39:00,67.3,67.0,29.77,NW,310,1.0,2.0,99,0.05,,---,3.64,VWS V14.01,2013-05-22 01:39:00,
2013-05-21 20:40:00,67.3,67.0,29.77,NW,308,0.0,2.0,99,0.05,,---,3.64,VWS V14.01,2013-05-22 01:40:00,
2013-05-21 20:42:00,67.3,67.0,29.77,NW,308,0.0,2.0,99,0.05,,---,3.64,VWS V14.01,2013-05-22 01:42:00,
2013-05-21 20:44:00,67.3,67.0,29.76,ENE,59,1.0,2.0,99,0.05,,---,3.64,VWS V14.01,2013-05-22 01:44:00,
2013-05-21 20:45:00,67.2,66.9,29.76,ENE,69,2.0,3.0,99,0.05,,---,3.64,VWS V14.01,2013-05-22 01:45:00,
2013-05-21 20:47:00,67.2,66.9,29.76,NNW,343,1.0,3.0,99,0.04,,---,3.64,VWS V14.01,2013-05-22 01:47:00,
2013-05-21 20:49:00,67.2,66.9,29.76,NNW,343,1.0,3.0,99,0.04,,---,3.64,VWS V14.01,2013-05-22 01:49:00,
2013-05-21 20:50:00,67.2,66.9,29.76,NW,318,0.0,3.0,99,0.04,,---,3.64,VWS V14.01,2013-05-22 01:50:00,
2013-05-21 20:52:00,67.2,66.9,29.77,NW,318,0.0,3.0,99,0.04,,---,3.64,VWS V14.01,2013-05-22 01:52:00,
2013-05-21 20:54:00,67.2,66.9,29.77,NW,309,0.0,3.0,99,0.05,,---,3.65,VWS V14.01,2013-05-22 01:54:00,
2013-05-21 20:55:00,67.2,66.9,29.77,NW,308,2.0,3.0,99,0.05,,---,3.65,VWS V14.01,2013-05-22 01:55:00,
2013-05-21 20:57:00,67.2,66.9,29.77,NNW,328,1.0,3.0,99,0.05,,---,3.65,VWS V14.01,2013-05-22 01:57:00,
2013-05-21 20:59:00,67.2,66.9,29.78,NNW,328,0.0,3.0,99,0.05,,---,3.65,VWS V14.01,2013-05-22 01:59:00,
2013-05-21 21:00:00,67.1,66.8,29.78,NNW,328,0.0,3.0,99,0.05,,---,3.65,VWS V14.01,2013-05-22 02:00:00,
2013-05-21 21:02:00,67.2,66.9,29.78,NNW,328,0.0,1.0,99,0.02,,---,3.65,VWS V14.01,2013-05-22 02:02:00,
2013-05-21 21:03:00,67.1,66.8,29.78,NNW,328,0.0,1.0,99,0.02,,---,3.65,VWS V14.01,2013-05-22 02:03:00,
2013-05-21 21:04:00,67.2,66.9,29.78,NNE,32,3.0,5.0,99,0.03,,---,3.66,VWS V14.01,2013-05-22 02:04:00,
2013-05-21 21:05:00,67.1,66.8,29.78,NE,42,2.0,5.0,99,0.03,,---,3.66,VWS V14.01,2013-05-22 02:05:00,
2013-05-21 21:06:00,67.1,66.8,29.78,NE,35,0.0,5.0,99,0.03,,---,3.66,VWS V14.01,2013-05-22 02:06:00,
2013-05-21 21:07:00,67.1,66.8,29.78,ENE,72,2.0,5.0,99,0.03,,---,3.66,VWS V14.01,2013-05-22 02:07:00,
2013-05-21 21:08:00,67.1,66.8,29.78,ENE,70,1.0,5.0,99,0.03,,---,3.66,VWS V14.01,2013-05-22 02:08:00,
2013-05-21 21:09:00,67.1,66.8,29.78,ENE,70,0.0,5.0,99,0.04,,---,3.67,VWS V14.01,2013-05-22 02:09:00,
2013-05-21 21:10:00,67.1,66.8,29.78,ENE,70,0.0,5.0,99,0.04,,---,3.67,VWS V14.01,2013-05-22 02:10:00,
2013-05-21 21:11:00,67.1,66.8,29.79,ENE,70,0.0,5.0,99,0.04,,---,3.67,VWS V14.01,2013-05-22 02:11:00,
2013-05-21 21:13:00,67.1,66.8,29.78,ENE,67,1.0,5.0,99,0.04,,---,3.67,VWS V14.01,2013-05-22 02:13:00,
2013-05-21 21:15:00,67.1,66.8,29.78,ENE,59,1.0,5.0,99,0.05,,---,3.68,VWS V14.01,2013-05-22 02:15:00,
2013-05-21 21:16:00,67.1,66.8,29.78,East,82,1.0,2.0,99,0.05,,---,3.68,VWS V14.01,2013-05-22 02:16:00,
2013-05-21 21:18:00,67.1,66.8,29.79,East,83,0.0,2.0,99,0.05,,---,3.68,VWS V14.01,2013-05-22 02:18:00,
2013-05-21 21:20:00,67.1,66.8,29.78,ENE,67,0.0,2.0,99,0.05,,---,3.68,VWS V14.01,2013-05-22 02:20:00,
2013-05-21 21:21:00,67.1,66.8,29.78,ENE,67,1.0,2.0,99,0.05,,---,3.68,VWS V14.01,2013-05-22 02:21:00,
2013-05-21 21:23:00,67.1,66.8,29.79,ENE,67,0.0,2.0,99,0.06,,---,3.69,VWS V14.01,2013-05-22 02:23:00,
2013-05-21 21:25:00,67.1,66.8,29.79,ENE,63,2.0,2.0,99,0.06,,---,3.69,VWS V14.01,2013-05-22 02:25:00,
2013-05-21 21:27:00,67.1,66.8,29.80,ENE,60,0.0,2.0,99,0.06,,---,3.69,VWS V14.01,2013-05-22 02:27:00,
2013-05-21 21:28:00,67.1,66.8,29.81,ENE,60,0.0,2.0,99,0.06,,---,3.69,VWS V14.01,2013-05-22 02:28:00,
2013-05-21 21:30:00,67.1,66.8,29.82,ENE,60,0.0,2.0,99,0.06,,---,3.69,VWS V14.01,2013-05-22 02:30:00,
2013-05-21 21:31:00,67.1,66.8,29.83,West,280,0.0,1.0,99,0.05,,---,3.69,VWS V14.01,2013-05-22 02:31:00,
2013-05-21 21:32:00,67.2,66.9,29.84,WNW,290,2.0,5.0,99,0.05,,---,3.69,VWS V14.01,2013-05-22 02:32:00,
2013-05-21 21:33:00,67.3,67.0,29.85,WNW,282,7.0,8.0,99,0.07,,---,3.71,VWS V14.01,2013-05-22 02:33:00,
2013-05-21 21:35:00,67.4,67.1,29.84,NW,308,0.0,8.0,99,0.20,,---,3.84,VWS V14.01,2013-05-22 02:35:00,
2013-05-21 21:36:00,67.4,67.1,29.84,NW,307,0.0,8.0,99,0.21,,---,3.85,VWS V14.01,2013-05-22 02:36:00,
2013-05-21 21:37:00,67.4,67.1,29.84,NW,306,0.0,8.0,99,0.22,,---,3.86,VWS V14.01,2013-05-22 02:37:00,
2013-05-21 21:39:00,67.5,67.2,29.84,West,271,0.0,8.0,99,0.22,,---,3.86,VWS V14.01,2013-05-22 02:39:00,
2013-05-21 21:40:00,67.5,67.2,29.84,West,271,0.0,8.0,99,0.22,,---,3.86,VWS V14.01,2013-05-22 02:40:00,
2013-05-21 21:41:00,67.4,67.1,29.84,West,271,0.0,8.0,99,0.22,,---,3.86,VWS V14.01,2013-05-22 02:41:00,
2013-05-21 21:42:00,67.5,67.2,29.84,West,271,0.0,8.0,99,0.22,,---,3.86,VWS V14.01,2013-05-22 02:42:00,
2013-05-21 21:43:00,67.4,67.1,29.84,West,271,0.0,8.0,99,0.23,,---,3.87,VWS V14.01,2013-05-22 02:43:00,
2013-05-21 21:44:00,67.5,67.2,29.84,West,271,0.0,8.0,99,0.23,,---,3.87,VWS V14.01,2013-05-22 02:44:00,
2013-05-21 21:46:00,67.5,67.2,29.84,West,271,0.0,0.0,99,0.25,,---,3.89,VWS V14.01,2013-05-22 02:46:00,
2013-05-21 21:48:00,67.5,67.2,29.84,WNW,291,4.0,4.0,99,0.25,,---,3.89,VWS V14.01,2013-05-22 02:48:00,
2013-05-21 21:49:00,67.5,67.2,29.85,West,269,1.0,6.0,99,0.26,,---,3.90,VWS V14.01,2013-05-22 02:49:00,
2013-05-21 21:51:00,67.5,67.0,29.85,West,280,1.0,6.0,99,0.26,,,3.90,weatherlink.com 1.10,2013-05-22 02:51:00,
2013-05-21 21:53:00,67.4,67.1,29.85,NNW,328,3.0,10.0,99,0.26,,---,3.90,VWS V14.01,2013-05-22 02:53:00,
2013-05-21 21:54:00,67.4,67.1,29.85,WNW,294,1.0,10.0,99,0.26,,---,3.90,VWS V14.01,2013-05-22 02:54:00,
2013-05-21 21:56:00,67.4,67.1,29.85,WNW,285,2.0,10.0,99,0.26,,---,3.90,VWS V14.01,2013-05-22 02:56:00,
2013-05-21 21:58:00,67.4,67.1,29.86,WNW,297,1.0,10.0,99,0.27,,---,3.91,VWS V14.01,2013-05-22 02:58:00,
2013-05-21 21:59:00,67.4,67.1,29.86,West,276,1.0,10.0,99,0.28,,---,3.92,VWS V14.01,2013-05-22 02:59:00,
2013-05-21 22:01:00,67.4,67.1,29.87,WNW,295,1.0,1.0,99,0.27,,---,3.92,VWS V14.01,2013-05-22 03:01:00,
2013-05-21 22:02:00,67.4,67.1,29.87,WNW,285,4.0,7.0,99,0.28,,---,3.93,VWS V14.01,2013-05-22 03:02:00,
2013-05-21 22:03:00,67.4,67.1,29.87,West,281,5.0,7.0,99,0.28,,---,3.93,VWS V14.01,2013-05-22 03:03:00,
2013-05-21 22:04:00,67.3,67.0,29.87,WSW,254,1.0,10.0,99,0.28,,---,3.93,VWS V14.01,2013-05-22 03:04:00,
2013-05-21 22:06:00,67.2,66.9,29.87,NW,318,1.0,10.0,99,0.29,,---,3.95,VWS V14.01,2013-05-22 03:06:00,
2013-05-21 22:07:00,67.2,66.9,29.86,NW,318,1.0,10.0,99,0.31,,---,3.96,VWS V14.01,2013-05-22 03:07:00,
2013-05-21 22:08:00,67.1,66.8,29.86,ENE,57,3.0,10.0,99,0.34,,---,3.99,VWS V14.01,2013-05-22 03:08:00,
2013-05-21 22:09:00,66.8,66.5,29.87,WNW,302,1.0,10.0,99,0.38,,---,4.03,VWS V14.01,2013-05-22 03:09:00,
2013-05-21 22:11:00,66.5,65.9,29.87,WNW,282,1.0,10.0,98,0.45,,---,4.10,VWS V14.01,2013-05-22 03:11:00,
2013-05-21 22:12:00,66.4,65.8,29.87,NW,311,2.0,10.0,98,0.46,,---,4.11,VWS V14.01,2013-05-22 03:12:00,
2013-05-21 22:13:00,66.2,65.6,29.87,NW,326,1.0,10.0,98,0.47,,---,4.12,VWS V14.01,2013-05-22 03:13:00,
2013-05-21 22:14:00,65.9,65.0,29.87,NW,326,0.0,10.0,97,0.48,,---,4.13,VWS V14.01,2013-05-22 03:14:00,
2013-05-21 22:16:00,65.6,64.7,29.87,NW,316,0.0,1.0,97,0.46,,---,4.14,VWS V14.01,2013-05-22 03:16:00,
2013-05-21 22:17:00,65.5,64.6,29.87,NW,316,0.0,1.0,97,0.46,,---,4.14,VWS V14.01,2013-05-22 03:17:00,
2013-05-21 22:18:00,65.4,64.5,29.87,NW,321,1.0,2.0,97,0.48,,---,4.16,VWS V14.01,2013-05-22 03:18:00,
2013-05-21 22:19:00,65.2,64.6,29.87,NW,321,0.0,2.0,98,0.49,,---,4.17,VWS V14.01,2013-05-22 03:19:00,
2013-05-21 22:21:00,65.0,64.4,29.87,WNW,288,0.0,2.0,98,0.50,,---,4.18,VWS V14.01,2013-05-22 03:21:00,
2013-05-21 22:22:00,65.0,64.4,29.87,WNW,288,0.0,2.0,98,0.51,,---,4.19,VWS V14.01,2013-05-22 03:22:00,
2013-05-21 22:23:00,64.9,64.3,29.87,NW,314,1.0,2.0,98,0.51,,---,4.19,VWS V14.01,2013-05-22 03:23:00,
2013-05-21 22:24:00,64.9,64.3,29.87,NW,313,0.0,2.0,98,0.52,,---,4.20,VWS V14.01,2013-05-22 03:24:00,
2013-05-21 22:26:00,64.7,64.1,29.87,NNW,346,1.0,2.0,98,0.54,,---,4.22,VWS V14.01,2013-05-22 03:26:00,
2013-05-21 22:27:00,64.7,64.1,29.87,NW,308,0.0,2.0,98,0.54,,---,4.22,VWS V14.01,2013-05-22 03:27:00,
2013-05-21 22:28:00,64.7,64.1,29.88,NW,308,0.0,2.0,98,0.55,,---,4.23,VWS V14.01,2013-05-22 03:28:00,
2013-05-21 22:29:00,64.7,64.1,29.87,NW,308,0.0,2.0,98,0.56,,---,4.24,VWS V14.01,2013-05-22 03:29:00,
2013-05-21 22:32:00,64.6,64.0,29.88,NW,309,1.0,1.0,98,0.56,,---,4.25,VWS V14.01,2013-05-22 03:32:00,
2013-05-21 22:33:00,64.6,64.0,29.88,NW,308,0.0,1.0,98,0.58,,---,4.27,VWS V14.01,2013-05-22 03:33:00,
2013-05-21 22:34:00,64.6,64.0,29.88,West,281,0.0,1.0,98,0.59,,---,4.28,VWS V14.01,2013-05-22 03:34:00,
2013-05-21 22:35:00,64.6,64.0,29.88,WNW,282,0.0,1.0,98,0.59,,---,4.28,VWS V14.01,2013-05-22 03:35:00,
2013-05-21 22:37:00,64.5,63.9,29.88,West,280,0.0,1.0,98,0.62,,---,4.31,VWS V14.01,2013-05-22 03:37:00,
2013-05-21 22:38:00,64.5,63.9,29.88,WNW,291,0.0,5.0,98,0.63,,---,4.32,VWS V14.01,2013-05-22 03:38:00,
2013-05-21 22:40:00,64.4,63.8,29.89,WNW,291,0.0,5.0,98,0.64,,---,4.33,VWS V14.01,2013-05-22 03:40:00,
2013-05-21 22:42:00,64.4,64.1,29.89,WNW,292,0.0,5.0,99,0.65,,---,4.34,VWS V14.01,2013-05-22 03:42:00,
2013-05-21 22:43:00,64.4,64.1,29.89,WNW,292,0.0,5.0,99,0.66,,---,4.35,VWS V14.01,2013-05-22 03:43:00,
2013-05-21 22:45:00,64.4,64.1,29.89,WNW,291,0.0,5.0,99,0.67,,---,4.36,VWS V14.01,2013-05-22 03:45:00,
2013-05-21 22:47:00,64.4,64.1,29.89,WNW,292,0.0,0.0,99,0.50,,---,4.39,VWS V14.01,2013-05-22 03:47:00,
2013-05-21 22:49:00,64.4,64.1,29.89,WNW,291,0.0,0.0,99,0.52,,---,4.41,VWS V14.01,2013-05-22 03:49:00,
2013-05-21 22:50:00,64.4,64.1,29.89,WNW,291,0.0,0.0,99,0.53,,---,4.42,VWS V14.01,2013-05-22 03:50:00,
2013-05-21 22:52:00,64.4,64.1,29.89,WNW,292,0.0,0.0,99,0.55,,---,4.44,VWS V14.01,2013-05-22 03:52:00,
2013-05-21 22:54:00,64.5,64.2,29.89,WNW,291,0.0,0.0,99,0.56,,---,4.45,VWS V14.01,2013-05-22 03:54:00,
2013-05-21 22:55:00,64.5,64.2,29.89,WNW,292,0.0,0.0,99,0.56,,---,4.45,VWS V14.01,2013-05-22 03:55:00,
2013-05-21 22:57:00,64.5,64.2,29.89,WNW,292,0.0,0.0,99,0.58,,---,4.47,VWS V14.01,2013-05-22 03:57:00,
2013-05-21 22:58:00,64.5,64.2,29.90,WNW,292,0.0,0.0,99,0.58,,---,4.47,VWS V14.01,2013-05-22 03:58:00,
2013-05-21 22:59:00,64.5,64.2,29.90,WNW,292,0.0,1.0,99,0.59,,---,4.48,VWS V14.01,2013-05-22 03:59:00,
2013-05-21 23:00:00,64.5,64.2,29.90,WNW,292,0.0,1.0,99,0.59,,---,4.48,VWS V14.01,2013-05-22 04:00:00,
2013-05-21 23:01:00,64.5,64.2,29.90,WNW,291,0.0,0.0,99,0.57,,---,4.49,VWS V14.01,2013-05-22 04:01:00,
2013-05-21 23:06:00,64.4,64.1,29.91,West,276,1.0,3.0,99,0.59,,---,4.51,VWS V14.01,2013-05-22 04:06:00,
2013-05-21 23:11:00,64.2,63.9,29.91,WNW,283,1.0,3.0,99,0.62,,---,4.54,VWS V14.01,2013-05-22 04:11:00,
2013-05-21 23:16:00,64.2,63.9,29.92,West,280,2.0,2.0,99,0.42,,---,4.56,VWS V14.01,2013-05-22 04:16:00,
2013-05-21 23:21:00,64.1,63.8,29.92,WNW,282,4.0,6.0,99,0.44,,---,4.58,VWS V14.01,2013-05-22 04:21:00,
2013-05-21 23:22:00,64.1,63.8,29.92,WNW,295,6.0,6.0,99,0.44,,---,4.58,VWS V14.01,2013-05-22 04:22:00,
2013-05-21 23:26:00,64.0,63.7,29.92,WNW,295,1.0,7.0,99,0.46,,---,4.60,VWS V14.01,2013-05-22 04:26:00,
2013-05-21 23:27:00,64.1,63.8,29.92,West,263,1.0,7.0,99,0.46,,---,4.60,VWS V14.01,2013-05-22 04:27:00,
2013-05-21 23:31:00,63.9,63.6,29.91,WNW,294,1.0,1.0,99,0.39,,---,4.63,VWS V14.01,2013-05-22 04:31:00,
2013-05-21 23:32:00,63.9,63.6,29.91,West,263,2.0,2.0,99,0.39,,---,4.63,VWS V14.01,2013-05-22 04:32:00,
2013-05-21 23:36:00,63.7,63.4,29.91,WNW,287,5.0,8.0,99,0.42,,---,4.66,VWS V14.01,2013-05-22 04:36:00,
2013-05-21 23:37:00,63.7,63.4,29.91,West,278,5.0,8.0,99,0.42,,---,4.66,VWS V14.01,2013-05-22 04:37:00,
2013-05-21 23:41:00,63.7,63.4,29.90,WNW,284,0.0,8.0,99,0.44,,---,4.68,VWS V14.01,2013-05-22 04:41:00,
2013-05-21 23:42:00,63.7,63.4,29.90,WNW,284,0.0,8.0,99,0.44,,---,4.68,VWS V14.01,2013-05-22 04:42:00,
2013-05-21 23:46:00,63.7,63.4,29.90,WNW,283,1.0,1.0,99,0.33,,---,4.70,VWS V14.01,2013-05-22 04:46:00,
2013-05-21 23:47:00,63.6,63.3,29.90,WNW,283,0.0,1.0,99,0.33,,---,4.70,VWS V14.01,2013-05-22 04:47:00,
2013-05-21 23:48:00,63.6,63.3,29.90,WNW,283,0.0,1.0,99,0.34,,---,4.71,VWS V14.01,2013-05-22 04:48:00,
2013-05-21 23:51:00,63.5,63.2,29.89,WNW,283,0.0,1.0,99,0.36,,---,4.73,VWS V14.01,2013-05-22 04:51:00,
2013-05-21 23:52:00,63.5,63.2,29.89,WNW,283,0.0,1.0,99,0.36,,---,4.73,VWS V14.01,2013-05-22 04:52:00,
2013-05-21 23:53:00,63.5,63.2,29.89,WNW,283,0.0,1.0,99,0.36,,---,4.73,VWS V14.01,2013-05-22 04:53:00,
2013-05-21 23:56:00,63.4,63.1,29.88,WNW,283,0.0,1.0,99,0.38,,---,4.75,VWS V14.01,2013-05-22 04:56:00,
2013-05-21 23:57:00,63.4,63.1,29.88,WNW,283,0.0,1.0,99,0.38,,---,4.75,VWS V14.01,2013-05-22 04:57:00,
2013-05-21 23:58:00,63.4,63.1,29.88,WNW,283,0.0,1.0,99,0.38,,---,4.75,VWS V14.01,2013-05-22 04:58:00,